Wetterdaten: Donnerstag, 07.05.2015
Datum Zeit Temp. Aussen +5cm Feuchte Auss Luftdruck Regen Sonnenschein Regendauer Solar Windben
07.05.2015 00:00 10,9 C 8,9 C 79 % 1013,4 hPa 0,0 l/m 0 min 0 min 0 W/m 18,8 km/h (3 Bft)
07.05.2015 00:02 10,9 C 8,9 C 79 % 1013,3 hPa 0,0 l/m 0 min 0 min 0 W/m 23,0 km/h (4 Bft)
07.05.2015 00:06 10,8 C 8,9 C 79 % 1013,4 hPa 0,0 l/m 0 min 0 min 0 W/m 20,9 km/h (4 Bft)
07.05.2015 00:08 10,8 C 8,9 C 80 % 1013,4 hPa 0,0 l/m 0 min 0 min 0 W/m 25,1 km/h (4 Bft)
07.05.2015 00:10 10,8 C 8,9 C 80 % 1013,4 hPa 0,0 l/m 0 min 0 min 0 W/m 16,7 km/h (3 Bft)
07.05.2015 00:12 10,8 C 8,9 C 80 % 1013,3 hPa 0,0 l/m 0 min 0 min 0 W/m 18,8 km/h (3 Bft)
07.05.2015 00:14 10,8 C 8,9 C 80 % 1013,3 hPa 0,0 l/m 0 min 0 min 0 W/m 31,4 km/h (5 Bft)
07.05.2015 00:16 10,8 C 8,9 C 80 % 1013,4 hPa 0,0 l/m 0 min 0 min 0 W/m 31,4 km/h (5 Bft)
07.05.2015 00:18 10,8 C 8,9 C 80 % 1013,4 hPa 0,0 l/m 0 min 0 min 0 W/m 20,9 km/h (4 Bft)
07.05.2015 00:20 10,8 C 8,9 C 80 % 1013,4 hPa 0,0 l/m 0 min 0 min 0 W/m 20,9 km/h (4 Bft)
07.05.2015 00:22 10,8 C 8,9 C 80 % 1013,4 hPa 0,0 l/m 0 min 0 min 0 W/m 23,0 km/h (4 Bft)
07.05.2015 00:24 10,8 C 8,9 C 80 % 1013,5 hPa 0,0 l/m 0 min 0 min 0 W/m 23,0 km/h (4 Bft)
07.05.2015 00:26 10,8 C 8,9 C 80 % 1013,5 hPa 0,0 l/m 0 min 0 min 0 W/m 20,9 km/h (4 Bft)
07.05.2015 00:28 10,7 C 8,9 C 80 % 1013,6 hPa 0,0 l/m 0 min 0 min 0 W/m 20,9 km/h (4 Bft)
07.05.2015 00:30 10,7 C 8,9 C 80 % 1013,5 hPa 0,0 l/m 0 min 0 min 0 W/m 29,3 km/h (5 Bft)
07.05.2015 00:32 10,7 C 8,9 C 80 % 1013,6 hPa 0,0 l/m 0 min 0 min 0 W/m 29,3 km/h (5 Bft)
07.05.2015 00:34 10,7 C 8,9 C 80 % 1013,5 hPa 0,0 l/m 0 min 0 min 0 W/m 18,8 km/h (3 Bft)
07.05.2015 00:36 10,7 C 8,9 C 80 % 1013,5 hPa 0,0 l/m 0 min 0 min 0 W/m 27,2 km/h (4 Bft)
07.05.2015 00:38 10,7 C 8,9 C 80 % 1013,6 hPa 0,0 l/m 0 min 0 min 0 W/m 25,1 km/h (4 Bft)
07.05.2015 00:40 10,7 C 8,9 C 80 % 1013,6 hPa 0,0 l/m 0 min 0 min 0 W/m 14,6 km/h (3 Bft)
07.05.2015 00:42 10,7 C 8,9 C 81 % 1013,6 hPa 0,0 l/m 0 min 0 min 0 W/m 18,8 km/h (3 Bft)
07.05.2015 00:44 10,6 C 8,9 C 81 % 1013,5 hPa 0,0 l/m 0 min 0 min 0 W/m 16,7 km/h (3 Bft)
07.05.2015 00:46 10,6 C 8,9 C 81 % 1013,5 hPa 0,0 l/m 0 min 0 min 0 W/m 14,6 km/h (3 Bft)
07.05.2015 00:48 10,6 C 8,9 C 81 % 1013,5 hPa 0,0 l/m 0 min 0 min 0 W/m 18,8 km/h (3 Bft)
07.05.2015 00:50 10,6 C 8,9 C 81 % 1013,5 hPa 0,0 l/m 0 min 0 min 0 W/m 16,7 km/h (3 Bft)
07.05.2015 00:52 10,6 C 8,9 C 81 % 1013,5 hPa 0,0 l/m 0 min 0 min 0 W/m 18,8 km/h (3 Bft)
07.05.2015 00:54 10,6 C 8,9 C 81 % 1013,4 hPa 0,0 l/m 0 min 0 min 0 W/m 18,8 km/h (3 Bft)
07.05.2015 00:56 10,5 C 8,9 C 81 % 1013,4 hPa 0,0 l/m 0 min 0 min 0 W/m 14,6 km/h (3 Bft)
07.05.2015 00:58 10,5 C 8,9 C 81 % 1013,5 hPa 0,0 l/m 0 min 0 min 0 W/m 25,1 km/h (4 Bft)
07.05.2015 01:00 10,5 C 8,9 C 81 % 1013,5 hPa 0,0 l/m 0 min 0 min 0 W/m 29,3 km/h (5 Bft)
07.05.2015 01:02 10,5 C 8,9 C 81 % 1013,6 hPa 0,0 l/m 0 min 0 min 0 W/m 23,0 km/h (4 Bft)
07.05.2015 01:04 10,4 C 8,9 C 81 % 1013,5 hPa 0,0 l/m 0 min 0 min 0 W/m 25,1 km/h (4 Bft)
07.05.2015 01:06 10,4 C 8,9 C 81 % 1013,6 hPa 0,0 l/m 0 min 0 min 0 W/m 20,9 km/h (4 Bft)
07.05.2015 01:08 10,4 C 8,9 C 81 % 1013,6 hPa 0,0 l/m 0 min 0 min 0 W/m 29,3 km/h (5 Bft)
07.05.2015 01:10 10,4 C 8,9 C 81 % 1013,6 hPa 0,0 l/m 0 min 0 min 0 W/m 25,1 km/h (4 Bft)
07.05.2015 01:12 10,4 C 8,9 C 81 % 1013,6 hPa 0,0 l/m 0 min 0 min 0 W/m 25,1 km/h (4 Bft)
07.05.2015 01:14 10,4 C 8,9 C 80 % 1013,7 hPa 0,0 l/m 0 min 0 min 0 W/m 27,2 km/h (4 Bft)
07.05.2015 01:16 10,4 C 8,9 C 80 % 1013,6 hPa 0,0 l/m 0 min 0 min 0 W/m 20,9 km/h (4 Bft)
07.05.2015 01:18 10,4 C 8,9 C 80 % 1013,7 hPa 0,0 l/m 0 min 0 min 0 W/m 20,9 km/h (4 Bft)
07.05.2015 01:20 10,4 C 8,9 C 80 % 1013,6 hPa 0,0 l/m 0 min 0 min 0 W/m 25,1 km/h (4 Bft)
07.05.2015 01:22 10,4 C 8,9 C 80 % 1013,7 hPa 0,0 l/m 0 min 0 min 0 W/m 25,1 km/h (4 Bft)
07.05.2015 01:24 10,4 C 8,9 C 80 % 1013,7 hPa 0,0 l/m 0 min 0 min 0 W/m 33,5 km/h (5 Bft)
07.05.2015 01:26 10,4 C 8,9 C 80 % 1013,6 hPa 0,0 l/m 0 min 0 min 0 W/m 23,0 km/h (4 Bft)
07.05.2015 01:28 10,4 C 8,9 C 80 % 1013,6 hPa 0,0 l/m 0 min 0 min 0 W/m 18,8 km/h (3 Bft)
07.05.2015 01:30 10,4 C 8,9 C 80 % 1013,6 hPa 0,0 l/m 0 min 0 min 0 W/m 20,9 km/h (4 Bft)
07.05.2015 01:32 10,4 C 8,9 C 80 % 1013,6 hPa 0,0 l/m 0 min 0 min 0 W/m 31,4 km/h (5 Bft)
07.05.2015 01:34 10,4 C 8,9 C 80 % 1013,6 hPa 0,0 l/m 0 min 0 min 0 W/m 25,1 km/h (4 Bft)
07.05.2015 01:36 10,4 C 8,9 C 80 % 1013,6 hPa 0,0 l/m 0 min 0 min 0 W/m 25,1 km/h (4 Bft)
07.05.2015 01:38 10,4 C 8,9 C 80 % 1013,7 hPa 0,0 l/m 0 min 0 min 0 W/m 25,1 km/h (4 Bft)
07.05.2015 01:40 10,4 C 8,9 C 80 % 1013,7 hPa 0,0 l/m 0 min 0 min 0 W/m 27,2 km/h (4 Bft)
07.05.2015 01:42 10,4 C 8,9 C 80 % 1013,7 hPa 0,0 l/m 0 min 0 min 0 W/m 20,9 km/h (4 Bft)
07.05.2015 01:44 10,4 C 8,9 C 80 % 1013,7 hPa 0,0 l/m 0 min 0 min 0 W/m 25,1 km/h (4 Bft)
07.05.2015 01:46 10,4 C 8,3 C 80 % 1013,7 hPa 0,0 l/m 0 min 0 min 0 W/m 33,5 km/h (5 Bft)
07.05.2015 01:48 10,4 C 8,9 C 80 % 1013,7 hPa 0,0 l/m 0 min 0 min 0 W/m 35,6 km/h (5 Bft)
07.05.2015 01:50 10,4 C 8,9 C 80 % 1013,7 hPa 0,0 l/m 0 min 0 min 0 W/m 20,9 km/h (4 Bft)
07.05.2015 01:52 10,4 C 8,9 C 80 % 1013,8 hPa 0,0 l/m 0 min 0 min 0 W/m 31,4 km/h (5 Bft)
07.05.2015 01:54 10,4 C 8,9 C 80 % 1013,7 hPa 0,0 l/m 0 min 0 min 0 W/m 27,2 km/h (4 Bft)
07.05.2015 01:56 10,5 C 8,9 C 80 % 1013,8 hPa 0,0 l/m 0 min 0 min 0 W/m 23,0 km/h (4 Bft)
07.05.2015 01:58 10,4 C 8,9 C 80 % 1013,7 hPa 0,0 l/m 0 min 0 min 0 W/m 25,1 km/h (4 Bft)
07.05.2015 02:00 10,4 C 8,3 C 81 % 1013,7 hPa 0,0 l/m 0 min 0 min 0 W/m 20,9 km/h (4 Bft)
07.05.2015 02:02 10,4 C 8,3 C 81 % 1013,7 hPa 0,0 l/m 0 min 0 min 0 W/m 31,4 km/h (5 Bft)
07.05.2015 02:04 10,4 C 8,3 C 81 % 1013,7 hPa 0,0 l/m 0 min 0 min 0 W/m 25,1 km/h (4 Bft)
07.05.2015 02:06 10,4 C 8,3 C 81 % 1013,7 hPa 0,0 l/m 0 min 0 min 0 W/m 29,3 km/h (5 Bft)
07.05.2015 02:08 10,4 C 8,3 C 81 % 1013,7 hPa 0,0 l/m 0 min 0 min 0 W/m 33,5 km/h (5 Bft)
07.05.2015 02:10 10,4 C 8,3 C 81 % 1013,7 hPa 0,0 l/m 0 min 0 min 0 W/m 23,0 km/h (4 Bft)
07.05.2015 02:12 10,4 C 8,3 C 82 % 1013,7 hPa 0,0 l/m 0 min 0 min 0 W/m 23,0 km/h (4 Bft)
07.05.2015 02:14 10,4 C 8,3 C 82 % 1013,8 hPa 0,0 l/m 0 min 0 min 0 W/m 33,5 km/h (5 Bft)
07.05.2015 02:16 10,4 C 8,3 C 82 % 1013,8 hPa 0,0 l/m 0 min 0 min 0 W/m 18,8 km/h (3 Bft)
07.05.2015 02:18 10,4 C 8,3 C 82 % 1013,7 hPa 0,0 l/m 0 min 0 min 0 W/m 25,1 km/h (4 Bft)
07.05.2015 02:20 10,4 C 8,3 C 82 % 1013,8 hPa 0,0 l/m 0 min 0 min 0 W/m 23,0 km/h (4 Bft)
07.05.2015 02:22 10,4 C 8,3 C 82 % 1013,8 hPa 0,0 l/m 0 min 0 min 0 W/m 23,0 km/h (4 Bft)
07.05.2015 02:24 10,4 C 8,3 C 82 % 1013,8 hPa 0,0 l/m 0 min 0 min 0 W/m 23,0 km/h (4 Bft)
07.05.2015 02:26 10,3 C 8,3 C 82 % 1013,7 hPa 0,0 l/m 0 min 0 min 0 W/m 29,3 km/h (5 Bft)
07.05.2015 02:28 10,3 C 8,3 C 82 % 1013,7 hPa 0,0 l/m 0 min 0 min 0 W/m 14,6 km/h (3 Bft)
07.05.2015 02:30 10,3 C 8,3 C 82 % 1013,7 hPa 0,0 l/m 0 min 0 min 0 W/m 20,9 km/h (4 Bft)
07.05.2015 02:32 10,3 C 8,3 C 82 % 1013,7 hPa 0,0 l/m 0 min 0 min 0 W/m 18,8 km/h (3 Bft)
07.05.2015 02:34 10,3 C 8,3 C 82 % 1013,7 hPa 0,0 l/m 0 min 0 min 0 W/m 18,8 km/h (3 Bft)
07.05.2015 02:36 10,3 C 8,3 C 82 % 1013,7 hPa 0,0 l/m 0 min 0 min 0 W/m 18,8 km/h (3 Bft)
07.05.2015 02:38 10,2 C 8,3 C 82 % 1013,7 hPa 0,0 l/m 0 min 0 min 0 W/m 14,6 km/h (3 Bft)
07.05.2015 02:40 10,2 C 8,3 C 82 % 1013,8 hPa 0,0 l/m 0 min 0 min 0 W/m 12,6 km/h (3 Bft)
07.05.2015 02:42 10,2 C 8,3 C 82 % 1013,8 hPa 0,0 l/m 0 min 0 min 0 W/m 18,8 km/h (3 Bft)
07.05.2015 02:44 10,2 C 8,3 C 83 % 1013,8 hPa 0,0 l/m 0 min 0 min 0 W/m 16,7 km/h (3 Bft)
07.05.2015 02:46 10,1 C 8,3 C 83 % 1013,8 hPa 0,0 l/m 0 min 0 min 0 W/m 14,6 km/h (3 Bft)
07.05.2015 02:48 10,1 C 8,3 C 83 % 1013,8 hPa 0,0 l/m 0 min 0 min 0 W/m 14,6 km/h (3 Bft)
07.05.2015 02:50 10,1 C 8,3 C 83 % 1013,8 hPa 0,0 l/m 0 min 0 min 0 W/m 12,6 km/h (3 Bft)
07.05.2015 02:52 10,1 C 8,3 C 83 % 1013,8 hPa 0,0 l/m 0 min 0 min 0 W/m 14,6 km/h (3 Bft)
07.05.2015 02:54 10,0 C 8,3 C 83 % 1013,7 hPa 0,0 l/m 0 min 0 min 0 W/m 25,1 km/h (4 Bft)
07.05.2015 02:56 10,0 C 8,3 C 83 % 1013,8 hPa 0,0 l/m 0 min 0 min 0 W/m 20,9 km/h (4 Bft)
07.05.2015 02:58 9,9 C 8,3 C 83 % 1013,8 hPa 0,0 l/m 0 min 0 min 0 W/m 16,7 km/h (3 Bft)
07.05.2015 03:00 9,9 C 8,3 C 84 % 1013,9 hPa 0,0 l/m 0 min 0 min 0 W/m 18,8 km/h (3 Bft)
07.05.2015 03:02 9,9 C 8,3 C 84 % 1013,9 hPa 0,0 l/m 0 min 0 min 0 W/m 16,7 km/h (3 Bft)
07.05.2015 03:04 9,9 C 8,3 C 84 % 1013,8 hPa 0,0 l/m 0 min 0 min 0 W/m 14,6 km/h (3 Bft)
07.05.2015 03:06 9,9 C 8,3 C 84 % 1013,8 hPa 0,0 l/m 0 min 0 min 0 W/m 20,9 km/h (4 Bft)
07.05.2015 03:08 9,8 C 8,3 C 84 % 1013,9 hPa 0,0 l/m 0 min 0 min 0 W/m 23,0 km/h (4 Bft)
07.05.2015 03:10 9,8 C 8,3 C 84 % 1013,9 hPa 0,0 l/m 0 min 0 min 0 W/m 18,8 km/h (3 Bft)
07.05.2015 03:12 9,8 C 8,3 C 84 % 1013,8 hPa 0,0 l/m 0 min 0 min 0 W/m 20,9 km/h (4 Bft)
07.05.2015 03:14 9,8 C 8,3 C 84 % 1013,9 hPa 0,0 l/m 0 min 0 min 0 W/m 31,4 km/h (5 Bft)
07.05.2015 03:16 9,8 C 8,3 C 84 % 1013,9 hPa 0,0 l/m 0 min 0 min 0 W/m 18,8 km/h (3 Bft)
07.05.2015 03:18 9,8 C 8,3 C 83 % 1013,8 hPa 0,0 l/m 0 min 0 min 0 W/m 18,8 km/h (3 Bft)
07.05.2015 03:20 9,8 C 8,3 C 83 % 1013,8 hPa 0,0 l/m 0 min 0 min 0 W/m 23,0 km/h (4 Bft)
07.05.2015 03:22 9,8 C 8,3 C 83 % 1013,9 hPa 0,0 l/m 0 min 0 min 0 W/m 18,8 km/h (3 Bft)
07.05.2015 03:24 9,8 C 8,3 C 83 % 1013,9 hPa 0,0 l/m 0 min 0 min 0 W/m 14,6 km/h (3 Bft)
07.05.2015 03:26 9,8 C 8,3 C 83 % 1013,9 hPa 0,0 l/m 0 min 0 min 0 W/m 16,7 km/h (3 Bft)
07.05.2015 03:28 9,8 C 8,3 C 83 % 1013,9 hPa 0,0 l/m 0 min 0 min 0 W/m 12,6 km/h (3 Bft)
07.05.2015 03:30 9,7 C 8,3 C 83 % 1013,9 hPa 0,0 l/m 0 min 0 min 0 W/m 10,5 km/h (2 Bft)
07.05.2015 03:32 9,7 C 8,3 C 83 % 1014,0 hPa 0,0 l/m 0 min 0 min 0 W/m 14,6 km/h (3 Bft)
07.05.2015 03:34 9,7 C 8,3 C 83 % 1013,9 hPa 0,0 l/m 0 min 0 min 0 W/m 14,6 km/h (3 Bft)
07.05.2015 03:36 9,7 C 8,3 C 83 % 1014,0 hPa 0,0 l/m 0 min 0 min 0 W/m 10,5 km/h (2 Bft)
07.05.2015 03:38 9,7 C 8,3 C 83 % 1014,0 hPa 0,0 l/m 0 min 0 min 0 W/m 12,6 km/h (3 Bft)
07.05.2015 03:40 9,7 C 8,3 C 83 % 1014,0 hPa 0,0 l/m 0 min 0 min 0 W/m 20,9 km/h (4 Bft)
07.05.2015 03:42 9,7 C 8,3 C 83 % 1014,0 hPa 0,0 l/m 0 min 0 min 0 W/m 18,8 km/h (3 Bft)
07.05.2015 03:44 9,7 C 8,3 C 83 % 1014,0 hPa 0,0 l/m 0 min 0 min 0 W/m 18,8 km/h (3 Bft)
07.05.2015 03:46 9,7 C 8,3 C 83 % 1014,0 hPa 0,0 l/m 0 min 0 min 0 W/m 16,7 km/h (3 Bft)
07.05.2015 03:48 9,7 C 8,3 C 83 % 1014,0 hPa 0,0 l/m 0 min 0 min 0 W/m 23,0 km/h (4 Bft)
07.05.2015 03:50 9,7 C 8,3 C 84 % 1014,0 hPa 0,0 l/m 0 min 0 min 0 W/m 8,4 km/h (2 Bft)
07.05.2015 03:52 9,7 C 8,3 C 84 % 1014,0 hPa 0,0 l/m 0 min 0 min 0 W/m 16,7 km/h (3 Bft)
07.05.2015 03:54 9,7 C 8,3 C 84 % 1014,0 hPa 0,0 l/m 0 min 0 min 0 W/m 12,6 km/h (3 Bft)
07.05.2015 03:56 9,7 C 8,3 C 84 % 1014,1 hPa 0,0 l/m 0 min 0 min 0 W/m 18,8 km/h (3 Bft)
07.05.2015 03:58 9,6 C 8,3 C 84 % 1014,2 hPa 0,0 l/m 0 min 0 min 0 W/m 18,8 km/h (3 Bft)
07.05.2015 04:00 9,6 C 8,3 C 84 % 1014,2 hPa 0,0 l/m 0 min 0 min 0 W/m 18,8 km/h (3 Bft)
07.05.2015 04:05 9,6 C 8,3 C 84 % 1014,1 hPa 0,0 l/m 0 min 0 min 0 W/m 31,4 km/h (5 Bft)
07.05.2015 04:06 9,6 C 8,3 C 84 % 1014,1 hPa 0,0 l/m 0 min 0 min 0 W/m 29,3 km/h (5 Bft)
07.05.2015 04:08 9,6 C 8,3 C 84 % 1014,1 hPa 0,0 l/m 0 min 0 min 0 W/m 23,0 km/h (4 Bft)
07.05.2015 04:10 9,6 C 8,3 C 84 % 1014,2 hPa 0,0 l/m 0 min 0 min 0 W/m 27,2 km/h (4 Bft)
07.05.2015 04:12 9,6 C 8,3 C 84 % 1014,2 hPa 0,0 l/m 0 min 0 min 0 W/m 23,0 km/h (4 Bft)
07.05.2015 04:14 9,6 C 8,3 C 84 % 1014,2 hPa 0,0 l/m 0 min 0 min 0 W/m 27,2 km/h (4 Bft)
07.05.2015 04:16 9,6 C 8,3 C 84 % 1014,1 hPa 0,0 l/m 0 min 0 min 0 W/m 23,0 km/h (4 Bft)
07.05.2015 04:18 9,6 C 8,3 C 84 % 1014,2 hPa 0,0 l/m 0 min 0 min 0 W/m 23,0 km/h (4 Bft)
07.05.2015 04:20 9,6 C 8,3 C 84 % 1014,2 hPa 0,0 l/m 0 min 0 min 0 W/m 20,9 km/h (4 Bft)
07.05.2015 04:22 9,6 C 8,3 C 84 % 1014,2 hPa 0,0 l/m 0 min 0 min 0 W/m 20,9 km/h (4 Bft)
07.05.2015 04:24 9,6 C 8,3 C 84 % 1014,2 hPa 0,0 l/m 0 min 0 min 0 W/m 33,5 km/h (5 Bft)
07.05.2015 04:26 9,6 C 8,3 C 84 % 1014,2 hPa 0,0 l/m 0 min 0 min 0 W/m 16,7 km/h (3 Bft)
07.05.2015 04:28 9,6 C 8,3 C 84 % 1014,3 hPa 0,0 l/m 0 min 0 min 0 W/m 29,3 km/h (5 Bft)
07.05.2015 04:30 9,6 C 8,3 C 84 % 1014,2 hPa 0,0 l/m 0 min 0 min 0 W/m 20,9 km/h (4 Bft)
07.05.2015 04:32 9,6 C 8,3 C 84 % 1014,3 hPa 0,0 l/m 0 min 0 min 0 W/m 18,8 km/h (3 Bft)
07.05.2015 04:34 9,6 C 7,8 C 84 % 1014,3 hPa 0,0 l/m 0 min 0 min 0 W/m 16,7 km/h (3 Bft)
07.05.2015 04:36 9,6 C 7,8 C 84 % 1014,3 hPa 0,0 l/m 0 min 0 min 0 W/m 16,7 km/h (3 Bft)
07.05.2015 04:38 9,6 C 7,8 C 84 % 1014,4 hPa 0,0 l/m 0 min 0 min 0 W/m 14,6 km/h (3 Bft)
07.05.2015 04:40 9,6 C 7,8 C 84 % 1014,5 hPa 0,0 l/m 0 min 0 min 0 W/m 25,1 km/h (4 Bft)
07.05.2015 04:42 9,6 C 7,8 C 84 % 1014,6 hPa 0,0 l/m 0 min 0 min 0 W/m 25,1 km/h (4 Bft)
07.05.2015 04:44 9,6 C 7,8 C 84 % 1014,6 hPa 0,0 l/m 0 min 0 min 0 W/m 16,7 km/h (3 Bft)
07.05.2015 04:46 9,6 C 7,8 C 84 % 1014,6 hPa 0,0 l/m 0 min 0 min 0 W/m 16,7 km/h (3 Bft)
07.05.2015 04:48 9,6 C 7,8 C 84 % 1014,6 hPa 0,0 l/m 0 min 0 min 0 W/m 33,5 km/h (5 Bft)
07.05.2015 04:50 9,6 C 7,8 C 84 % 1014,6 hPa 0,0 l/m 0 min 0 min 0 W/m 25,1 km/h (4 Bft)
07.05.2015 04:52 9,6 C 7,8 C 85 % 1014,7 hPa 0,0 l/m 0 min 0 min 0 W/m 23,0 km/h (4 Bft)
07.05.2015 04:54 9,6 C 7,8 C 84 % 1014,6 hPa 0,0 l/m 0 min 0 min 0 W/m 27,2 km/h (4 Bft)
07.05.2015 04:56 9,6 C 7,8 C 84 % 1014,6 hPa 0,0 l/m 0 min 0 min 0 W/m 33,5 km/h (5 Bft)
07.05.2015 04:58 9,5 C 7,8 C 84 % 1014,6 hPa 0,0 l/m 0 min 0 min 0 W/m 25,1 km/h (4 Bft)
07.05.2015 05:00 9,6 C 7,8 C 84 % 1014,7 hPa 0,0 l/m 0 min 0 min 0 W/m 23,0 km/h (4 Bft)
07.05.2015 05:02 9,6 C 7,8 C 84 % 1014,6 hPa 0,0 l/m 0 min 0 min 0 W/m 25,1 km/h (4 Bft)
07.05.2015 05:04 9,5 C 7,8 C 84 % 1014,7 hPa 0,0 l/m 0 min 0 min 0 W/m 25,1 km/h (4 Bft)
07.05.2015 05:06 9,5 C 7,8 C 84 % 1014,6 hPa 0,0 l/m 0 min 0 min 0 W/m 27,2 km/h (4 Bft)
07.05.2015 05:08 9,5 C 7,8 C 85 % 1014,7 hPa 0,0 l/m 0 min 0 min 0 W/m 23,0 km/h (4 Bft)
07.05.2015 05:10 9,5 C 7,8 C 84 % 1014,7 hPa 0,0 l/m 0 min 0 min 0 W/m 23,0 km/h (4 Bft)
07.05.2015 05:12 9,5 C 7,8 C 84 % 1014,8 hPa 0,0 l/m 0 min 0 min 0 W/m 23,0 km/h (4 Bft)
07.05.2015 05:14 9,5 C 7,8 C 84 % 1014,7 hPa 0,0 l/m 0 min 0 min 0 W/m 20,9 km/h (4 Bft)
07.05.2015 05:16 9,5 C 7,8 C 84 % 1014,8 hPa 0,0 l/m 0 min 0 min 0 W/m 20,9 km/h (4 Bft)
07.05.2015 05:18 9,5 C 7,8 C 84 % 1014,8 hPa 0,0 l/m 0 min 0 min 0 W/m 23,0 km/h (4 Bft)
07.05.2015 05:20 9,4 C 7,8 C 84 % 1014,8 hPa 0,0 l/m 0 min 0 min 0 W/m 23,0 km/h (4 Bft)
07.05.2015 05:22 9,4 C 7,8 C 84 % 1014,8 hPa 0,0 l/m 0 min 0 min 0 W/m 18,8 km/h (3 Bft)
07.05.2015 05:24 9,4 C 8,3 C 84 % 1014,8 hPa 0,0 l/m 0 min 0 min 0 W/m 25,1 km/h (4 Bft)
07.05.2015 05:26 9,4 C 8,3 C 84 % 1014,8 hPa 0,0 l/m 0 min 0 min 0 W/m 18,8 km/h (3 Bft)
07.05.2015 05:28 9,4 C 8,3 C 84 % 1014,8 hPa 0,0 l/m 0 min 0 min 0 W/m 20,9 km/h (4 Bft)
07.05.2015 05:30 9,4 C 8,3 C 84 % 1014,8 hPa 0,0 l/m 0 min 0 min 0 W/m 23,0 km/h (4 Bft)
07.05.2015 05:32 9,4 C 8,3 C 84 % 1014,8 hPa 0,0 l/m 0 min 0 min 0 W/m 20,9 km/h (4 Bft)
07.05.2015 05:34 9,4 C 8,3 C 84 % 1014,8 hPa 0,0 l/m 0 min 0 min 0 W/m 25,1 km/h (4 Bft)
07.05.2015 05:36 9,4 C 8,3 C 84 % 1014,8 hPa 0,0 l/m 0 min 0 min 0 W/m 18,8 km/h (3 Bft)
07.05.2015 05:38 9,4 C 8,3 C 84 % 1014,8 hPa 0,0 l/m 0 min 0 min 0 W/m 16,7 km/h (3 Bft)
07.05.2015 05:40 9,4 C 8,3 C 84 % 1014,8 hPa 0,0 l/m 0 min 0 min 0 W/m 18,8 km/h (3 Bft)
07.05.2015 05:42 9,4 C 8,3 C 84 % 1014,8 hPa 0,0 l/m 0 min 0 min 0 W/m 20,9 km/h (4 Bft)
07.05.2015 05:44 9,4 C 8,3 C 84 % 1014,8 hPa 0,0 l/m 0 min 0 min 0 W/m 29,3 km/h (5 Bft)
07.05.2015 05:46 9,4 C 8,3 C 84 % 1014,9 hPa 0,0 l/m 0 min 0 min 0 W/m 16,7 km/h (3 Bft)
07.05.2015 05:48 9,4 C 8,3 C 84 % 1014,8 hPa 0,0 l/m 0 min 0 min 0 W/m 14,6 km/h (3 Bft)
07.05.2015 05:50 9,4 C 7,8 C 84 % 1014,9 hPa 0,0 l/m 0 min 0 min 0 W/m 20,9 km/h (4 Bft)
07.05.2015 05:52 9,4 C 7,8 C 84 % 1014,8 hPa 0,0 l/m 0 min 0 min 4 W/m 18,8 km/h (3 Bft)
07.05.2015 05:54 9,4 C 7,8 C 84 % 1014,8 hPa 0,0 l/m 0 min 0 min 5 W/m 10,5 km/h (2 Bft)
07.05.2015 05:56 9,4 C 7,8 C 84 % 1014,9 hPa 0,0 l/m 0 min 0 min 5 W/m 14,6 km/h (3 Bft)
07.05.2015 05:58 9,3 C 7,8 C 84 % 1014,8 hPa 0,0 l/m 0 min 0 min 6 W/m 25,1 km/h (4 Bft)
07.05.2015 06:00 9,3 C 7,8 C 84 % 1014,8 hPa 0,0 l/m 0 min 0 min 7 W/m 16,7 km/h (3 Bft)
07.05.2015 06:02 9,3 C 7,8 C 84 % 1014,8 hPa 0,0 l/m 0 min 0 min 7 W/m 23,0 km/h (4 Bft)
07.05.2015 06:06 9,3 C 7,8 C 84 % 1014,9 hPa 0,0 l/m 0 min 0 min 9 W/m 18,8 km/h (3 Bft)
07.05.2015 06:08 9,3 C 7,8 C 85 % 1014,9 hPa 0,0 l/m 0 min 0 min 11 W/m 23,0 km/h (4 Bft)
07.05.2015 06:10 9,2 C 7,8 C 85 % 1014,9 hPa 0,0 l/m 0 min 0 min 12 W/m 18,8 km/h (3 Bft)
07.05.2015 06:12 9,2 C 7,8 C 85 % 1015,0 hPa 0,0 l/m 0 min 0 min 13 W/m 29,3 km/h (5 Bft)
07.05.2015 06:14 9,2 C 7,8 C 85 % 1015,0 hPa 0,0 l/m 0 min 0 min 15 W/m 20,9 km/h (4 Bft)
07.05.2015 06:16 9,2 C 7,8 C 85 % 1015,1 hPa 0,0 l/m 0 min 0 min 16 W/m 14,6 km/h (3 Bft)
07.05.2015 06:18 9,2 C 7,8 C 85 % 1015,0 hPa 0,0 l/m 0 min 0 min 16 W/m 23,0 km/h (4 Bft)
07.05.2015 06:20 9,2 C 7,8 C 85 % 1015,0 hPa 0,0 l/m 0 min 0 min 18 W/m 16,7 km/h (3 Bft)
07.05.2015 06:22 9,2 C 7,8 C 85 % 1015,0 hPa 0,0 l/m 0 min 0 min 18 W/m 16,7 km/h (3 Bft)
07.05.2015 06:24 9,2 C 7,8 C 85 % 1015,0 hPa 0,0 l/m 0 min 0 min 18 W/m 14,6 km/h (3 Bft)
07.05.2015 06:26 9,2 C 7,8 C 85 % 1015,1 hPa 0,0 l/m 0 min 0 min 19 W/m 23,0 km/h (4 Bft)
07.05.2015 06:28 9,2 C 7,8 C 85 % 1015,1 hPa 0,0 l/m 0 min 0 min 21 W/m 20,9 km/h (4 Bft)
07.05.2015 06:30 9,1 C 7,8 C 85 % 1015,2 hPa 0,0 l/m 0 min 0 min 23 W/m 29,3 km/h (5 Bft)
07.05.2015 06:32 9,1 C 7,8 C 85 % 1015,1 hPa 0,0 l/m 0 min 0 min 24 W/m 27,2 km/h (4 Bft)
07.05.2015 06:34 9,1 C 7,8 C 85 % 1015,2 hPa 0,0 l/m 0 min 0 min 25 W/m 29,3 km/h (5 Bft)
07.05.2015 06:36 9,1 C 7,8 C 85 % 1015,2 hPa 0,0 l/m 0 min 0 min 27 W/m 23,0 km/h (4 Bft)
07.05.2015 06:38 9,1 C 7,8 C 85 % 1015,2 hPa 0,0 l/m 0 min 0 min 29 W/m 20,9 km/h (4 Bft)
07.05.2015 06:40 9,1 C 7,8 C 85 % 1015,1 hPa 0,0 l/m 0 min 0 min 33 W/m 20,9 km/h (4 Bft)
07.05.2015 06:42 9,1 C 7,8 C 85 % 1015,3 hPa 0,0 l/m 0 min 0 min 38 W/m 18,8 km/h (3 Bft)
07.05.2015 06:44 9,1 C 7,8 C 85 % 1015,3 hPa 0,0 l/m 0 min 0 min 39 W/m 25,1 km/h (4 Bft)
07.05.2015 06:46 9,1 C 7,8 C 85 % 1015,3 hPa 0,0 l/m 0 min 0 min 42 W/m 23,0 km/h (4 Bft)
07.05.2015 06:48 9,1 C 7,8 C 85 % 1015,3 hPa 0,0 l/m 0 min 0 min 44 W/m 20,9 km/h (4 Bft)
07.05.2015 06:50 9,1 C 8,3 C 85 % 1015,3 hPa 0,0 l/m 0 min 0 min 42 W/m 20,9 km/h (4 Bft)
07.05.2015 06:52 9,1 C 8,3 C 85 % 1015,4 hPa 0,0 l/m 0 min 0 min 40 W/m 18,8 km/h (3 Bft)
07.05.2015 06:54 9,1 C 8,3 C 86 % 1015,4 hPa 0,0 l/m 0 min 0 min 43 W/m 23,0 km/h (4 Bft)
07.05.2015 06:56 9,1 C 8,3 C 86 % 1015,5 hPa 0,0 l/m 0 min 0 min 46 W/m 18,8 km/h (3 Bft)
07.05.2015 06:58 9,1 C 8,3 C 86 % 1015,5 hPa 0,0 l/m 0 min 0 min 46 W/m 14,6 km/h (3 Bft)
07.05.2015 07:00 9,2 C 8,3 C 86 % 1015,5 hPa 0,0 l/m 0 min 0 min 46 W/m 12,6 km/h (3 Bft)
07.05.2015 07:02 9,2 C 8,3 C 86 % 1015,6 hPa 0,0 l/m 0 min 0 min 49 W/m 18,8 km/h (3 Bft)
07.05.2015 07:04 9,2 C 8,3 C 86 % 1015,7 hPa 0,0 l/m 0 min 0 min 49 W/m 20,9 km/h (4 Bft)
07.05.2015 07:06 9,2 C 8,3 C 86 % 1015,6 hPa 0,0 l/m 0 min 0 min 51 W/m 16,7 km/h (3 Bft)
07.05.2015 07:08 9,2 C 8,3 C 86 % 1015,7 hPa 0,0 l/m 0 min 0 min 53 W/m 23,0 km/h (4 Bft)
07.05.2015 07:10 9,2 C 8,3 C 86 % 1015,6 hPa 0,0 l/m 0 min 0 min 54 W/m 23,0 km/h (4 Bft)
07.05.2015 07:12 9,3 C 8,3 C 86 % 1015,7 hPa 0,0 l/m 0 min 0 min 59 W/m 23,0 km/h (4 Bft)
07.05.2015 07:14 9,3 C 8,3 C 86 % 1015,7 hPa 0,0 l/m 0 min 0 min 61 W/m 16,7 km/h (3 Bft)
07.05.2015 07:16 9,3 C 8,3 C 86 % 1015,7 hPa 0,0 l/m 0 min 0 min 65 W/m 18,8 km/h (3 Bft)
07.05.2015 07:18 9,3 C 8,3 C 86 % 1015,7 hPa 0,0 l/m 0 min 0 min 69 W/m 23,0 km/h (4 Bft)
07.05.2015 07:20 9,3 C 8,3 C 86 % 1015,7 hPa 0,0 l/m 0 min 0 min 71 W/m 20,9 km/h (4 Bft)
07.05.2015 07:22 9,4 C 8,3 C 86 % 1015,7 hPa 0,0 l/m 0 min 0 min 68 W/m 25,1 km/h (4 Bft)
07.05.2015 07:24 9,4 C 8,3 C 86 % 1015,7 hPa 0,0 l/m 0 min 0 min 73 W/m 23,0 km/h (4 Bft)
07.05.2015 07:26 9,4 C 8,3 C 86 % 1015,9 hPa 0,0 l/m 0 min 0 min 89 W/m 16,7 km/h (3 Bft)
07.05.2015 07:28 9,4 C 8,3 C 86 % 1015,9 hPa 0,0 l/m 0 min 0 min 93 W/m 23,0 km/h (4 Bft)
07.05.2015 07:30 9,4 C 8,3 C 86 % 1015,9 hPa 0,0 l/m 0 min 0 min 90 W/m 16,7 km/h (3 Bft)
07.05.2015 07:32 9,4 C 8,3 C 86 % 1015,9 hPa 0,0 l/m 0 min 0 min 92 W/m 23,0 km/h (4 Bft)
07.05.2015 07:34 9,5 C 8,9 C 86 % 1015,9 hPa 0,0 l/m 0 min 0 min 89 W/m 25,1 km/h (4 Bft)
07.05.2015 07:36 9,5 C 8,9 C 86 % 1015,9 hPa 0,0 l/m 0 min 0 min 88 W/m 16,7 km/h (3 Bft)
07.05.2015 07:38 9,5 C 8,9 C 86 % 1016,0 hPa 0,0 l/m 0 min 0 min 87 W/m 18,8 km/h (3 Bft)
07.05.2015 07:40 9,6 C 8,9 C 86 % 1016,0 hPa 0,0 l/m 0 min 0 min 88 W/m 25,1 km/h (4 Bft)
07.05.2015 07:42 9,6 C 8,9 C 86 % 1016,0 hPa 0,0 l/m 0 min 0 min 89 W/m 23,0 km/h (4 Bft)
07.05.2015 07:44 9,6 C 8,9 C 86 % 1016,0 hPa 0,0 l/m 0 min 0 min 92 W/m 20,9 km/h (4 Bft)
07.05.2015 07:46 9,6 C 8,9 C 85 % 1016,1 hPa 0,0 l/m 0 min 0 min 95 W/m 16,7 km/h (3 Bft)
07.05.2015 07:48 9,7 C 8,9 C 85 % 1016,1 hPa 0,0 l/m 0 min 0 min 100 W/m 23,0 km/h (4 Bft)
07.05.2015 07:50 9,7 C 8,9 C 85 % 1016,1 hPa 0,0 l/m 0 min 0 min 108 W/m 27,2 km/h (4 Bft)
07.05.2015 07:52 9,7 C 8,9 C 85 % 1016,2 hPa 0,0 l/m 0 min 0 min 118 W/m 20,9 km/h (4 Bft)
07.05.2015 07:54 9,7 C 8,9 C 85 % 1016,2 hPa 0,0 l/m 0 min 0 min 117 W/m 25,1 km/h (4 Bft)
07.05.2015 07:56 9,7 C 8,9 C 85 % 1016,2 hPa 0,0 l/m 0 min 0 min 123 W/m 27,2 km/h (4 Bft)
07.05.2015 07:58 9,8 C 8,9 C 85 % 1016,2 hPa 0,0 l/m 0 min 0 min 124 W/m 29,3 km/h (5 Bft)
07.05.2015 08:00 9,8 C 8,9 C 85 % 1016,3 hPa 0,0 l/m 0 min 0 min 113 W/m 29,3 km/h (5 Bft)
07.05.2015 08:02 9,8 C 8,9 C 85 % 1016,2 hPa 0,0 l/m 0 min 0 min 114 W/m 20,9 km/h (4 Bft)
07.05.2015 08:04 9,9 C 8,9 C 85 % 1016,4 hPa 0,0 l/m 0 min 0 min 125 W/m 20,9 km/h (4 Bft)
07.05.2015 08:06 9,9 C 8,9 C 85 % 1016,3 hPa 0,0 l/m 0 min 0 min 140 W/m 18,8 km/h (3 Bft)
07.05.2015 08:08 9,9 C 8,9 C 85 % 1016,3 hPa 0,0 l/m 0 min 0 min 149 W/m 27,2 km/h (4 Bft)
07.05.2015 08:10 9,9 C 8,9 C 85 % 1016,4 hPa 0,0 l/m 0 min 0 min 139 W/m 27,2 km/h (4 Bft)
07.05.2015 08:12 9,9 C 8,9 C 85 % 1016,4 hPa 0,0 l/m 0 min 0 min 130 W/m 25,1 km/h (4 Bft)
07.05.2015 08:14 10,0 C 8,9 C 85 % 1016,4 hPa 0,0 l/m 0 min 0 min 124 W/m 33,5 km/h (5 Bft)
07.05.2015 08:16 10,0 C 8,9 C 84 % 1016,5 hPa 0,0 l/m 0 min 0 min 112 W/m 14,6 km/h (3 Bft)
07.05.2015 08:18 10,0 C 8,9 C 84 % 1016,5 hPa 0,0 l/m 0 min 0 min 122 W/m 23,0 km/h (4 Bft)
07.05.2015 08:20 10,0 C 8,9 C 84 % 1016,5 hPa 0,0 l/m 2 min 0 min 264 W/m 25,1 km/h (4 Bft)
07.05.2015 08:22 10,1 C 8,9 C 85 % 1016,6 hPa 0,0 l/m 2 min 0 min 358 W/m 20,9 km/h (4 Bft)
07.05.2015 08:24 10,2 C 9,4 C 85 % 1016,6 hPa 0,0 l/m 2 min 0 min 308 W/m 23,0 km/h (4 Bft)
07.05.2015 08:26 10,2 C 9,4 C 84 % 1016,7 hPa 0,0 l/m 2 min 0 min 206 W/m 20,9 km/h (4 Bft)
07.05.2015 08:28 10,3 C 9,4 C 85 % 1016,6 hPa 0,0 l/m 2 min 0 min 262 W/m 20,9 km/h (4 Bft)
07.05.2015 08:30 10,3 C 9,4 C 84 % 1016,6 hPa 0,0 l/m 2 min 0 min 206 W/m 23,0 km/h (4 Bft)
07.05.2015 08:32 10,3 C 9,4 C 84 % 1016,7 hPa 0,0 l/m 0 min 0 min 151 W/m 33,5 km/h (5 Bft)
07.05.2015 08:34 10,4 C 9,4 C 84 % 1016,6 hPa 0,0 l/m 0 min 0 min 143 W/m 27,2 km/h (4 Bft)
07.05.2015 08:36 10,4 C 8,9 C 84 % 1016,8 hPa 0,0 l/m 0 min 0 min 131 W/m 29,3 km/h (5 Bft)
07.05.2015 08:38 10,4 C 8,9 C 84 % 1016,8 hPa 0,0 l/m 0 min 0 min 117 W/m 31,4 km/h (5 Bft)
07.05.2015 08:40 10,4 C 8,9 C 83 % 1016,8 hPa 0,0 l/m 0 min 0 min 118 W/m 20,9 km/h (4 Bft)
07.05.2015 08:42 10,4 C 8,9 C 83 % 1016,8 hPa 0,0 l/m 2 min 0 min 250 W/m 20,9 km/h (4 Bft)
07.05.2015 08:44 10,4 C 8,9 C 83 % 1016,8 hPa 0,0 l/m 2 min 0 min 281 W/m 16,7 km/h (3 Bft)
07.05.2015 08:46 10,4 C 8,9 C 84 % 1016,7 hPa 0,0 l/m 2 min 0 min 384 W/m 20,9 km/h (4 Bft)
07.05.2015 08:48 10,4 C 9,4 C 84 % 1016,9 hPa 0,0 l/m 2 min 0 min 429 W/m 14,6 km/h (3 Bft)
07.05.2015 08:50 10,5 C 9,4 C 84 % 1016,8 hPa 0,0 l/m 2 min 0 min 469 W/m 20,9 km/h (4 Bft)
07.05.2015 08:52 10,6 C 9,4 C 84 % 1017,0 hPa 0,0 l/m 2 min 0 min 524 W/m 25,1 km/h (4 Bft)
07.05.2015 08:54 10,7 C 9,4 C 84 % 1016,9 hPa 0,0 l/m 2 min 0 min 427 W/m 31,4 km/h (5 Bft)
07.05.2015 08:56 10,8 C 9,4 C 84 % 1017,0 hPa 0,0 l/m 0 min 0 min 199 W/m 29,3 km/h (5 Bft)
07.05.2015 08:58 10,8 C 10,0 C 83 % 1017,1 hPa 0,0 l/m 0 min 0 min 213 W/m 25,1 km/h (4 Bft)
07.05.2015 09:00 10,9 C 10,0 C 83 % 1017,0 hPa 0,0 l/m 0 min 0 min 209 W/m 37,7 km/h (5 Bft)
07.05.2015 09:02 10,9 C 10,0 C 83 % 1017,0 hPa 0,0 l/m 0 min 0 min 167 W/m 29,3 km/h (5 Bft)
07.05.2015 09:04 11,0 C 10,0 C 82 % 1017,1 hPa 0,0 l/m 0 min 0 min 208 W/m 25,1 km/h (4 Bft)
07.05.2015 09:06 11,1 C 10,0 C 82 % 1017,1 hPa 0,0 l/m 2 min 0 min 281 W/m 29,3 km/h (5 Bft)
07.05.2015 09:08 11,1 C 10,0 C 82 % 1017,0 hPa 0,0 l/m 2 min 0 min 246 W/m 27,2 km/h (4 Bft)
07.05.2015 09:10 11,2 C 10,0 C 82 % 1017,1 hPa 0,0 l/m 0 min 0 min 214 W/m 31,4 km/h (5 Bft)
07.05.2015 09:12 11,2 C 10,0 C 82 % 1017,0 hPa 0,0 l/m 0 min 0 min 182 W/m 25,1 km/h (4 Bft)
07.05.2015 09:14 11,2 C 10,0 C 82 % 1017,1 hPa 0,0 l/m 0 min 0 min 174 W/m 29,3 km/h (5 Bft)
07.05.2015 09:16 11,3 C 10,0 C 82 % 1017,1 hPa 0,0 l/m 0 min 0 min 163 W/m 18,8 km/h (3 Bft)
07.05.2015 09:18 11,3 C 10,0 C 81 % 1017,1 hPa 0,0 l/m 0 min 0 min 150 W/m 29,3 km/h (5 Bft)
07.05.2015 09:20 11,3 C 10,0 C 81 % 1017,2 hPa 0,0 l/m 0 min 0 min 151 W/m 25,1 km/h (4 Bft)
07.05.2015 09:22 11,3 C 10,0 C 81 % 1017,1 hPa 0,0 l/m 0 min 0 min 136 W/m 27,2 km/h (4 Bft)
07.05.2015 09:24 11,3 C 10,0 C 81 % 1017,1 hPa 0,0 l/m 0 min 0 min 130 W/m 23,0 km/h (4 Bft)
07.05.2015 09:26 11,3 C 10,0 C 81 % 1017,1 hPa 0,0 l/m 0 min 0 min 168 W/m 31,4 km/h (5 Bft)
07.05.2015 09:28 11,3 C 10,0 C 80 % 1017,2 hPa 0,0 l/m 0 min 0 min 135 W/m 33,5 km/h (5 Bft)
07.05.2015 09:30 11,3 C 10,0 C 80 % 1017,1 hPa 0,0 l/m 0 min 0 min 139 W/m 23,0 km/h (4 Bft)
07.05.2015 09:32 11,3 C 10,0 C 80 % 1017,2 hPa 0,0 l/m 0 min 0 min 136 W/m 27,2 km/h (4 Bft)
07.05.2015 09:34 11,3 C 10,0 C 80 % 1017,2 hPa 0,0 l/m 0 min 0 min 154 W/m 18,8 km/h (3 Bft)
07.05.2015 09:36 11,3 C 10,0 C 80 % 1017,2 hPa 0,0 l/m 0 min 0 min 120 W/m 29,3 km/h (5 Bft)
07.05.2015 09:38 11,3 C 10,0 C 80 % 1017,3 hPa 0,0 l/m 0 min 0 min 96 W/m 20,9 km/h (4 Bft)
07.05.2015 09:40 11,3 C 10,0 C 80 % 1017,3 hPa 0,0 l/m 0 min 0 min 97 W/m 20,9 km/h (4 Bft)
07.05.2015 09:42 11,3 C 10,0 C 81 % 1017,4 hPa 0,0 l/m 0 min 0 min 101 W/m 23,0 km/h (4 Bft)
07.05.2015 09:44 11,3 C 10,0 C 81 % 1017,3 hPa 0,0 l/m 0 min 0 min 100 W/m 18,8 km/h (3 Bft)
07.05.2015 09:46 11,3 C 10,0 C 80 % 1017,4 hPa 0,0 l/m 0 min 0 min 128 W/m 33,5 km/h (5 Bft)
07.05.2015 09:48 11,3 C 10,0 C 80 % 1017,4 hPa 0,0 l/m 0 min 0 min 172 W/m 20,9 km/h (4 Bft)
07.05.2015 09:50 11,3 C 10,0 C 80 % 1017,3 hPa 0,0 l/m 0 min 0 min 138 W/m 23,0 km/h (4 Bft)
07.05.2015 09:52 11,3 C 10,0 C 80 % 1017,3 hPa 0,0 l/m 0 min 0 min 135 W/m 18,8 km/h (3 Bft)
07.05.2015 09:54 11,3 C 10,0 C 80 % 1017,3 hPa 0,0 l/m 0 min 0 min 135 W/m 16,7 km/h (3 Bft)
07.05.2015 09:56 11,3 C 10,0 C 80 % 1017,4 hPa 0,0 l/m 0 min 0 min 155 W/m 29,3 km/h (5 Bft)
07.05.2015 09:58 11,3 C 10,6 C 80 % 1017,3 hPa 0,0 l/m 0 min 0 min 250 W/m 23,0 km/h (4 Bft)
07.05.2015 10:00 11,4 C 10,6 C 80 % 1017,4 hPa 0,0 l/m 2 min 0 min 389 W/m 27,2 km/h (4 Bft)
07.05.2015 10:02 11,5 C 11,1 C 81 % 1017,4 hPa 0,0 l/m 2 min 0 min 435 W/m 31,4 km/h (5 Bft)
07.05.2015 10:04 11,6 C 11,1 C 80 % 1017,4 hPa 0,0 l/m 2 min 0 min 407 W/m 25,1 km/h (4 Bft)
07.05.2015 10:06 11,7 C 11,1 C 79 % 1017,4 hPa 0,0 l/m 2 min 0 min 438 W/m 20,9 km/h (4 Bft)
07.05.2015 10:08 11,8 C 11,1 C 80 % 1017,4 hPa 0,0 l/m 0 min 0 min 292 W/m 20,9 km/h (4 Bft)
07.05.2015 10:10 11,9 C 11,1 C 79 % 1017,4 hPa 0,0 l/m 2 min 0 min 328 W/m 16,7 km/h (3 Bft)
07.05.2015 10:12 12,0 C 11,7 C 79 % 1017,4 hPa 0,0 l/m 2 min 0 min 415 W/m 23,0 km/h (4 Bft)
07.05.2015 10:14 12,1 C 11,7 C 79 % 1017,5 hPa 0,0 l/m 2 min 0 min 446 W/m 27,2 km/h (4 Bft)
07.05.2015 10:16 12,2 C 11,7 C 79 % 1017,4 hPa 0,0 l/m 0 min 0 min 250 W/m 20,9 km/h (4 Bft)
07.05.2015 10:18 12,3 C 11,7 C 78 % 1017,5 hPa 0,0 l/m 0 min 0 min 238 W/m 25,1 km/h (4 Bft)
07.05.2015 10:20 12,3 C 11,7 C 78 % 1017,5 hPa 0,0 l/m 0 min 0 min 299 W/m 23,0 km/h (4 Bft)
07.05.2015 10:22 12,3 C 11,7 C 77 % 1017,5 hPa 0,0 l/m 2 min 0 min 376 W/m 18,8 km/h (3 Bft)
07.05.2015 10:24 12,4 C 11,1 C 77 % 1017,6 hPa 0,0 l/m 0 min 0 min 283 W/m 41,8 km/h (6 Bft)
07.05.2015 10:26 12,3 C 11,1 C 76 % 1017,5 hPa 0,0 l/m 0 min 0 min 214 W/m 23,0 km/h (4 Bft)
07.05.2015 10:28 12,3 C 11,1 C 76 % 1017,5 hPa 0,0 l/m 0 min 0 min 220 W/m 23,0 km/h (4 Bft)
07.05.2015 10:30 12,3 C 11,1 C 76 % 1017,6 hPa 0,0 l/m 0 min 0 min 276 W/m 29,3 km/h (5 Bft)
07.05.2015 10:32 12,3 C 11,1 C 76 % 1017,6 hPa 0,0 l/m 0 min 0 min 316 W/m 23,0 km/h (4 Bft)
07.05.2015 10:34 12,4 C 11,1 C 76 % 1017,6 hPa 0,0 l/m 0 min 0 min 292 W/m 27,2 km/h (4 Bft)
07.05.2015 10:36 12,4 C 11,1 C 76 % 1017,6 hPa 0,0 l/m 0 min 0 min 285 W/m 23,0 km/h (4 Bft)
07.05.2015 10:38 12,4 C 11,1 C 76 % 1017,6 hPa 0,0 l/m 0 min 0 min 293 W/m 23,0 km/h (4 Bft)
07.05.2015 10:40 12,4 C 11,7 C 76 % 1017,6 hPa 0,0 l/m 2 min 0 min 370 W/m 27,2 km/h (4 Bft)
07.05.2015 10:42 12,5 C 11,7 C 76 % 1017,7 hPa 0,0 l/m 2 min 0 min 391 W/m 25,1 km/h (4 Bft)
07.05.2015 10:44 12,6 C 11,7 C 76 % 1017,7 hPa 0,0 l/m 2 min 0 min 353 W/m 35,6 km/h (5 Bft)
07.05.2015 10:46 12,7 C 11,7 C 76 % 1017,8 hPa 0,0 l/m 2 min 0 min 339 W/m 20,9 km/h (4 Bft)
07.05.2015 10:48 12,7 C 11,7 C 76 % 1017,9 hPa 0,0 l/m 2 min 0 min 346 W/m 31,4 km/h (5 Bft)
07.05.2015 10:50 12,8 C 11,7 C 75 % 1017,8 hPa 0,0 l/m 2 min 0 min 348 W/m 35,6 km/h (5 Bft)
07.05.2015 10:52 12,8 C 11,7 C 75 % 1017,8 hPa 0,0 l/m 2 min 0 min 367 W/m 29,3 km/h (5 Bft)
07.05.2015 10:54 12,9 C 12,2 C 75 % 1017,9 hPa 0,0 l/m 2 min 0 min 431 W/m 18,8 km/h (3 Bft)
07.05.2015 10:56 12,9 C 12,2 C 76 % 1017,8 hPa 0,0 l/m 2 min 0 min 433 W/m 33,5 km/h (5 Bft)
07.05.2015 10:58 13,1 C 12,2 C 76 % 1017,9 hPa 0,0 l/m 2 min 0 min 473 W/m 31,4 km/h (5 Bft)
07.05.2015 11:00 13,1 C 12,2 C 75 % 1017,9 hPa 0,0 l/m 2 min 0 min 473 W/m 29,3 km/h (5 Bft)
07.05.2015 11:02 13,2 C 12,2 C 74 % 1017,9 hPa 0,0 l/m 0 min 0 min 326 W/m 33,5 km/h (5 Bft)
07.05.2015 11:04 13,2 C 12,2 C 74 % 1017,9 hPa 0,0 l/m 2 min 0 min 353 W/m 29,3 km/h (5 Bft)
07.05.2015 11:06 13,2 C 12,2 C 74 % 1017,9 hPa 0,0 l/m 2 min 0 min 380 W/m 27,2 km/h (4 Bft)
07.05.2015 11:08 13,2 C 12,2 C 74 % 1017,9 hPa 0,0 l/m 0 min 0 min 330 W/m 25,1 km/h (4 Bft)
07.05.2015 11:10 13,2 C 12,2 C 74 % 1018,0 hPa 0,0 l/m 2 min 0 min 380 W/m 33,5 km/h (5 Bft)
07.05.2015 11:12 13,3 C 12,2 C 74 % 1018,0 hPa 0,0 l/m 2 min 0 min 418 W/m 31,4 km/h (5 Bft)
07.05.2015 11:14 13,3 C 12,2 C 74 % 1018,0 hPa 0,0 l/m 2 min 0 min 366 W/m 27,2 km/h (4 Bft)
07.05.2015 11:16 13,3 C 12,2 C 74 % 1018,0 hPa 0,0 l/m 2 min 0 min 388 W/m 29,3 km/h (5 Bft)
07.05.2015 11:18 13,3 C 12,2 C 74 % 1018,1 hPa 0,0 l/m 2 min 0 min 428 W/m 31,4 km/h (5 Bft)
07.05.2015 11:20 13,3 C 12,2 C 74 % 1018,1 hPa 0,0 l/m 2 min 0 min 485 W/m 29,3 km/h (5 Bft)
07.05.2015 11:22 13,4 C 12,2 C 74 % 1018,0 hPa 0,0 l/m 2 min 0 min 818 W/m 29,3 km/h (5 Bft)
07.05.2015 11:24 13,6 C 12,8 C 75 % 1018,0 hPa 0,0 l/m 2 min 0 min 1034 W/m 25,1 km/h (4 Bft)
07.05.2015 11:26 13,7 C 12,8 C 74 % 1018,0 hPa 0,0 l/m 2 min 0 min 541 W/m 33,5 km/h (5 Bft)
07.05.2015 11:28 13,8 C 12,8 C 74 % 1018,0 hPa 0,0 l/m 2 min 0 min 809 W/m 33,5 km/h (5 Bft)
07.05.2015 11:30 13,9 C 13,3 C 73 % 1018,0 hPa 0,0 l/m 2 min 0 min 705 W/m 20,9 km/h (4 Bft)
07.05.2015 11:32 14,2 C 13,3 C 74 % 1018,0 hPa 0,0 l/m 2 min 0 min 771 W/m 14,6 km/h (3 Bft)
07.05.2015 11:34 14,3 C 13,9 C 75 % 1018,1 hPa 0,0 l/m 2 min 0 min 951 W/m 18,8 km/h (3 Bft)
07.05.2015 11:36 14,5 C 13,9 C 74 % 1018,0 hPa 0,0 l/m 2 min 0 min 772 W/m 31,4 km/h (5 Bft)
07.05.2015 11:38 14,6 C 13,9 C 71 % 1018,0 hPa 0,0 l/m 2 min 0 min 460 W/m 31,4 km/h (5 Bft)
07.05.2015 11:40 14,6 C 13,3 C 71 % 1018,0 hPa 0,0 l/m 2 min 0 min 509 W/m 33,5 km/h (5 Bft)
07.05.2015 11:42 14,7 C 13,3 C 71 % 1018,0 hPa 0,0 l/m 2 min 0 min 503 W/m 33,5 km/h (5 Bft)
07.05.2015 11:44 14,7 C 13,9 C 71 % 1018,0 hPa 0,0 l/m 2 min 0 min 503 W/m 31,4 km/h (5 Bft)
07.05.2015 11:46 14,7 C 13,3 C 70 % 1018,0 hPa 0,0 l/m 2 min 0 min 424 W/m 35,6 km/h (5 Bft)
07.05.2015 11:48 14,7 C 13,3 C 69 % 1018,0 hPa 0,0 l/m 2 min 0 min 526 W/m 31,4 km/h (5 Bft)
07.05.2015 11:50 14,7 C 13,3 C 69 % 1018,1 hPa 0,0 l/m 2 min 0 min 458 W/m 31,4 km/h (5 Bft)
07.05.2015 11:52 14,6 C 12,8 C 69 % 1018,1 hPa 0,0 l/m 0 min 0 min 361 W/m 29,3 km/h (5 Bft)
07.05.2015 11:54 14,6 C 12,8 C 69 % 1018,0 hPa 0,0 l/m 2 min 0 min 385 W/m 35,6 km/h (5 Bft)
07.05.2015 11:56 14,5 C 12,8 C 69 % 1018,1 hPa 0,0 l/m 2 min 0 min 397 W/m 23,0 km/h (4 Bft)
07.05.2015 11:58 14,5 C 13,3 C 69 % 1018,1 hPa 0,0 l/m 2 min 0 min 431 W/m 29,3 km/h (5 Bft)
07.05.2015 12:00 14,6 C 13,3 C 69 % 1018,0 hPa 0,0 l/m 2 min 0 min 492 W/m 25,1 km/h (4 Bft)
07.05.2015 12:03 14,7 C 13,3 C 70 % 1018,0 hPa 0,0 l/m 2 min 0 min 517 W/m 25,1 km/h (4 Bft)
07.05.2015 12:06 14,7 C 13,3 C 70 % 1018,0 hPa 0,0 l/m 2 min 0 min 388 W/m 25,1 km/h (4 Bft)
07.05.2015 12:08 14,7 C 12,8 C 69 % 1018,0 hPa 0,0 l/m 0 min 0 min 221 W/m 27,2 km/h (4 Bft)
07.05.2015 12:10 14,7 C 12,8 C 69 % 1018,0 hPa 0,0 l/m 0 min 0 min 243 W/m 23,0 km/h (4 Bft)
07.05.2015 12:12 14,6 C 12,8 C 69 % 1018,0 hPa 0,0 l/m 0 min 0 min 288 W/m 23,0 km/h (4 Bft)
07.05.2015 12:14 14,5 C 12,8 C 69 % 1018,0 hPa 0,0 l/m 0 min 0 min 305 W/m 23,0 km/h (4 Bft)
07.05.2015 12:16 14,4 C 12,8 C 69 % 1018,0 hPa 0,0 l/m 0 min 0 min 288 W/m 18,8 km/h (3 Bft)
07.05.2015 12:18 14,4 C 12,8 C 70 % 1018,0 hPa 0,0 l/m 0 min 0 min 328 W/m 25,1 km/h (4 Bft)
07.05.2015 12:20 14,4 C 12,8 C 69 % 1018,0 hPa 0,0 l/m 0 min 0 min 374 W/m 23,0 km/h (4 Bft)
07.05.2015 12:22 14,3 C 12,8 C 69 % 1018,0 hPa 0,0 l/m 0 min 0 min 372 W/m 23,0 km/h (4 Bft)
07.05.2015 12:24 14,4 C 12,8 C 70 % 1018,0 hPa 0,0 l/m 2 min 0 min 412 W/m 12,6 km/h (3 Bft)
07.05.2015 12:26 14,4 C 12,8 C 70 % 1018,0 hPa 0,0 l/m 0 min 0 min 200 W/m 12,6 km/h (3 Bft)
07.05.2015 12:28 14,4 C 12,8 C 71 % 1018,0 hPa 0,0 l/m 0 min 0 min 163 W/m 18,8 km/h (3 Bft)
07.05.2015 12:30 14,3 C 12,2 C 70 % 1018,1 hPa 0,0 l/m 0 min 0 min 174 W/m 20,9 km/h (4 Bft)
07.05.2015 12:32 14,3 C 12,2 C 70 % 1018,0 hPa 0,0 l/m 0 min 0 min 180 W/m 14,6 km/h (3 Bft)
07.05.2015 12:34 14,2 C 12,2 C 70 % 1018,0 hPa 0,0 l/m 0 min 0 min 212 W/m 14,6 km/h (3 Bft)
07.05.2015 12:36 14,2 C 12,8 C 71 % 1018,1 hPa 0,0 l/m 0 min 0 min 338 W/m 18,8 km/h (3 Bft)
07.05.2015 12:38 14,2 C 12,8 C 71 % 1018,1 hPa 0,0 l/m 0 min 0 min 296 W/m 10,5 km/h (2 Bft)
07.05.2015 12:40 14,3 C 12,8 C 71 % 1018,0 hPa 0,0 l/m 0 min 0 min 257 W/m 14,6 km/h (3 Bft)
07.05.2015 12:42 14,2 C 12,8 C 71 % 1018,1 hPa 0,0 l/m 0 min 0 min 275 W/m 18,8 km/h (3 Bft)
07.05.2015 12:44 14,2 C 12,8 C 71 % 1018,0 hPa 0,0 l/m 0 min 0 min 325 W/m 16,7 km/h (3 Bft)
07.05.2015 12:46 14,3 C 13,3 C 71 % 1018,0 hPa 0,0 l/m 2 min 0 min 436 W/m 20,9 km/h (4 Bft)
07.05.2015 12:48 14,4 C 13,3 C 72 % 1018,1 hPa 0,0 l/m 2 min 0 min 958 W/m 25,1 km/h (4 Bft)
07.05.2015 12:50 14,6 C 13,3 C 72 % 1018,0 hPa 0,0 l/m 0 min 0 min 271 W/m 29,3 km/h (5 Bft)
07.05.2015 12:52 14,6 C 13,3 C 70 % 1018,1 hPa 0,0 l/m 0 min 0 min 224 W/m 25,1 km/h (4 Bft)
07.05.2015 12:54 14,6 C 12,8 C 70 % 1018,0 hPa 0,0 l/m 0 min 0 min 199 W/m 23,0 km/h (4 Bft)
07.05.2015 12:56 14,6 C 12,8 C 69 % 1018,0 hPa 0,0 l/m 0 min 0 min 216 W/m 29,3 km/h (5 Bft)
07.05.2015 12:58 14,4 C 12,8 C 69 % 1018,0 hPa 0,0 l/m 0 min 0 min 273 W/m 18,8 km/h (3 Bft)
07.05.2015 13:00 14,4 C 12,8 C 69 % 1018,0 hPa 0,0 l/m 0 min 0 min 375 W/m 20,9 km/h (4 Bft)
07.05.2015 13:02 14,5 C 13,3 C 70 % 1018,0 hPa 0,0 l/m 0 min 0 min 378 W/m 20,9 km/h (4 Bft)
07.05.2015 13:04 14,6 C 13,9 C 70 % 1018,0 hPa 0,0 l/m 0 min 0 min 351 W/m 18,8 km/h (3 Bft)
07.05.2015 13:06 14,6 C 13,3 C 70 % 1018,1 hPa 0,0 l/m 0 min 0 min 253 W/m 23,0 km/h (4 Bft)
07.05.2015 13:08 14,6 C 12,8 C 69 % 1018,0 hPa 0,0 l/m 0 min 0 min 184 W/m 20,9 km/h (4 Bft)
07.05.2015 13:10 14,6 C 12,8 C 70 % 1018,0 hPa 0,0 l/m 0 min 0 min 134 W/m 14,6 km/h (3 Bft)
07.05.2015 13:12 14,6 C 12,8 C 70 % 1018,0 hPa 0,0 l/m 0 min 0 min 125 W/m 20,9 km/h (4 Bft)
07.05.2015 13:14 14,5 C 12,2 C 70 % 1018,1 hPa 0,0 l/m 0 min 0 min 163 W/m 20,9 km/h (4 Bft)
07.05.2015 13:16 14,4 C 12,8 C 69 % 1018,1 hPa 0,0 l/m 0 min 0 min 244 W/m 20,9 km/h (4 Bft)
07.05.2015 13:18 14,4 C 12,8 C 69 % 1018,1 hPa 0,0 l/m 0 min 0 min 335 W/m 16,7 km/h (3 Bft)
07.05.2015 13:20 14,5 C 13,3 C 71 % 1018,0 hPa 0,0 l/m 2 min 0 min 406 W/m 20,9 km/h (4 Bft)
07.05.2015 13:22 14,6 C 14,4 C 72 % 1018,0 hPa 0,0 l/m 2 min 0 min 617 W/m 14,6 km/h (3 Bft)
07.05.2015 13:24 14,8 C 14,4 C 72 % 1018,0 hPa 0,0 l/m 2 min 0 min 617 W/m 27,2 km/h (4 Bft)
07.05.2015 13:26 14,9 C 14,4 C 70 % 1018,0 hPa 0,0 l/m 2 min 0 min 426 W/m 23,0 km/h (4 Bft)
07.05.2015 13:28 15,0 C 13,9 C 69 % 1018,0 hPa 0,0 l/m 0 min 0 min 232 W/m 16,7 km/h (3 Bft)
07.05.2015 13:30 15,0 C 13,3 C 69 % 1018,0 hPa 0,0 l/m 0 min 0 min 152 W/m 14,6 km/h (3 Bft)
07.05.2015 13:32 15,1 C 13,3 C 69 % 1018,1 hPa 0,0 l/m 0 min 0 min 134 W/m 20,9 km/h (4 Bft)
07.05.2015 13:34 15,0 C 12,8 C 68 % 1018,0 hPa 0,0 l/m 0 min 0 min 130 W/m 18,8 km/h (3 Bft)
07.05.2015 13:36 14,9 C 12,8 C 68 % 1018,1 hPa 0,0 l/m 0 min 0 min 153 W/m 25,1 km/h (4 Bft)
07.05.2015 13:38 14,9 C 12,2 C 67 % 1018,1 hPa 0,0 l/m 0 min 0 min 180 W/m 23,0 km/h (4 Bft)
07.05.2015 13:40 14,7 C 12,2 C 67 % 1018,0 hPa 0,0 l/m 0 min 0 min 218 W/m 23,0 km/h (4 Bft)
07.05.2015 13:42 14,7 C 12,2 C 67 % 1018,0 hPa 0,0 l/m 0 min 0 min 278 W/m 23,0 km/h (4 Bft)
07.05.2015 13:44 14,6 C 12,8 C 68 % 1018,1 hPa 0,0 l/m 0 min 0 min 354 W/m 27,2 km/h (4 Bft)
07.05.2015 13:46 14,6 C 12,8 C 68 % 1018,0 hPa 0,0 l/m 0 min 0 min 396 W/m 25,1 km/h (4 Bft)
07.05.2015 13:48 14,7 C 13,3 C 69 % 1018,0 hPa 0,0 l/m 2 min 0 min 637 W/m 25,1 km/h (4 Bft)
07.05.2015 13:50 14,8 C 13,9 C 69 % 1018,0 hPa 0,0 l/m 2 min 0 min 860 W/m 23,0 km/h (4 Bft)
07.05.2015 13:52 15,0 C 13,9 C 70 % 1018,0 hPa 0,0 l/m 2 min 0 min 1038 W/m 29,3 km/h (5 Bft)
07.05.2015 13:54 15,1 C 13,9 C 67 % 1018,2 hPa 0,0 l/m 2 min 0 min 438 W/m 35,6 km/h (5 Bft)
07.05.2015 13:56 15,2 C 13,3 C 65 % 1018,2 hPa 0,0 l/m 0 min 0 min 257 W/m 16,7 km/h (3 Bft)
07.05.2015 13:58 15,2 C 13,3 C 65 % 1018,1 hPa 0,0 l/m 0 min 0 min 246 W/m 25,1 km/h (4 Bft)
07.05.2015 14:00 15,2 C 13,3 C 66 % 1018,2 hPa 0,0 l/m 0 min 0 min 208 W/m 20,9 km/h (4 Bft)
07.05.2015 14:02 15,2 C 12,8 C 66 % 1018,2 hPa 0,0 l/m 0 min 0 min 216 W/m 23,0 km/h (4 Bft)
07.05.2015 14:04 15,2 C 12,8 C 67 % 1018,2 hPa 0,0 l/m 0 min 0 min 267 W/m 18,8 km/h (3 Bft)
07.05.2015 14:06 15,2 C 13,3 C 68 % 1018,3 hPa 0,0 l/m 0 min 0 min 331 W/m 29,3 km/h (5 Bft)
07.05.2015 14:08 15,2 C 13,3 C 68 % 1018,3 hPa 0,0 l/m 2 min 0 min 496 W/m 29,3 km/h (5 Bft)
07.05.2015 14:10 15,2 C 13,9 C 69 % 1018,3 hPa 0,0 l/m 2 min 0 min 614 W/m 23,0 km/h (4 Bft)
07.05.2015 14:12 15,3 C 13,9 C 70 % 1018,3 hPa 0,0 l/m 2 min 0 min 586 W/m 20,9 km/h (4 Bft)
07.05.2015 14:14 15,4 C 13,9 C 68 % 1018,3 hPa 0,0 l/m 2 min 0 min 439 W/m 23,0 km/h (4 Bft)
07.05.2015 14:16 15,4 C 13,9 C 67 % 1018,3 hPa 0,0 l/m 0 min 0 min 308 W/m 23,0 km/h (4 Bft)
07.05.2015 14:18 15,5 C 13,9 C 67 % 1018,3 hPa 0,0 l/m 0 min 0 min 254 W/m 18,8 km/h (3 Bft)
07.05.2015 14:20 15,5 C 13,3 C 66 % 1018,3 hPa 0,0 l/m 0 min 0 min 213 W/m 25,1 km/h (4 Bft)
07.05.2015 14:22 15,4 C 13,3 C 67 % 1018,3 hPa 0,0 l/m 0 min 2 min 192 W/m 18,8 km/h (3 Bft)
07.05.2015 14:24 15,4 C 12,8 C 67 % 1018,4 hPa 0,0 l/m 0 min 2 min 202 W/m 23,0 km/h (4 Bft)
07.05.2015 14:26 15,3 C 12,8 C 67 % 1018,3 hPa 0,0 l/m 0 min 0 min 241 W/m 14,6 km/h (3 Bft)
07.05.2015 14:28 15,2 C 12,8 C 67 % 1018,3 hPa 0,0 l/m 0 min 0 min 275 W/m 20,9 km/h (4 Bft)
07.05.2015 14:30 15,2 C 13,3 C 67 % 1018,3 hPa 0,0 l/m 0 min 0 min 302 W/m 14,6 km/h (3 Bft)
07.05.2015 14:32 15,2 C 13,3 C 68 % 1018,3 hPa 0,0 l/m 0 min 0 min 299 W/m 14,6 km/h (3 Bft)
07.05.2015 14:34 15,2 C 13,3 C 69 % 1018,3 hPa 0,0 l/m 0 min 0 min 286 W/m 12,6 km/h (3 Bft)
07.05.2015 14:36 15,2 C 13,3 C 69 % 1018,3 hPa 0,0 l/m 0 min 0 min 290 W/m 18,8 km/h (3 Bft)
07.05.2015 14:38 15,2 C 13,3 C 68 % 1018,3 hPa 0,0 l/m 0 min 0 min 244 W/m 23,0 km/h (4 Bft)
07.05.2015 14:40 15,2 C 13,3 C 68 % 1018,3 hPa 0,0 l/m 0 min 0 min 237 W/m 23,0 km/h (4 Bft)
07.05.2015 14:42 15,1 C 13,3 C 67 % 1018,4 hPa 0,0 l/m 0 min 0 min 252 W/m 20,9 km/h (4 Bft)
07.05.2015 14:44 15,1 C 13,3 C 68 % 1018,3 hPa 0,0 l/m 0 min 0 min 242 W/m 18,8 km/h (3 Bft)
07.05.2015 14:46 15,1 C 13,3 C 69 % 1018,4 hPa 0,0 l/m 0 min 0 min 248 W/m 18,8 km/h (3 Bft)
07.05.2015 14:48 15,1 C 13,3 C 68 % 1018,4 hPa 0,0 l/m 0 min 0 min 292 W/m 16,7 km/h (3 Bft)
07.05.2015 14:50 15,1 C 13,3 C 68 % 1018,4 hPa 0,0 l/m 0 min 0 min 366 W/m 20,9 km/h (4 Bft)
07.05.2015 14:52 15,1 C 13,3 C 68 % 1018,3 hPa 0,0 l/m 2 min 0 min 407 W/m 20,9 km/h (4 Bft)
07.05.2015 14:54 15,1 C 13,3 C 69 % 1018,3 hPa 0,0 l/m 0 min 0 min 360 W/m 14,6 km/h (3 Bft)
07.05.2015 14:56 15,2 C 13,9 C 70 % 1018,4 hPa 0,0 l/m 0 min 0 min 335 W/m 16,7 km/h (3 Bft)
07.05.2015 14:58 15,2 C 13,9 C 69 % 1018,4 hPa 0,0 l/m 0 min 0 min 332 W/m 18,8 km/h (3 Bft)
07.05.2015 15:00 15,2 C 13,9 C 67 % 1018,4 hPa 0,0 l/m 0 min 0 min 328 W/m 23,0 km/h (4 Bft)
07.05.2015 15:02 15,2 C 13,9 C 66 % 1018,3 hPa 0,0 l/m 0 min 0 min 342 W/m 23,0 km/h (4 Bft)
07.05.2015 15:04 15,2 C 13,9 C 67 % 1018,4 hPa 0,0 l/m 2 min 0 min 395 W/m 16,7 km/h (3 Bft)
07.05.2015 15:06 15,3 C 13,9 C 67 % 1018,4 hPa 0,0 l/m 2 min 0 min 456 W/m 25,1 km/h (4 Bft)
07.05.2015 15:08 15,4 C 13,9 C 66 % 1018,4 hPa 0,0 l/m 2 min 0 min 473 W/m 23,0 km/h (4 Bft)
07.05.2015 15:10 15,4 C 13,9 C 67 % 1018,3 hPa 0,0 l/m 0 min 0 min 271 W/m 14,6 km/h (3 Bft)
07.05.2015 15:12 15,5 C 13,9 C 66 % 1018,3 hPa 0,0 l/m 0 min 0 min 211 W/m 12,6 km/h (3 Bft)
07.05.2015 15:14 15,6 C 13,9 C 67 % 1018,4 hPa 0,0 l/m 0 min 0 min 185 W/m 18,8 km/h (3 Bft)
07.05.2015 15:16 15,6 C 13,3 C 66 % 1018,4 hPa 0,0 l/m 0 min 0 min 198 W/m 14,6 km/h (3 Bft)
07.05.2015 15:18 15,6 C 13,3 C 67 % 1018,4 hPa 0,0 l/m 0 min 0 min 245 W/m 12,6 km/h (3 Bft)
07.05.2015 15:20 15,6 C 13,3 C 67 % 1018,4 hPa 0,0 l/m 0 min 0 min 268 W/m 10,5 km/h (2 Bft)
07.05.2015 15:22 15,6 C 13,3 C 67 % 1018,3 hPa 0,0 l/m 0 min 0 min 271 W/m 12,6 km/h (3 Bft)
07.05.2015 15:24 15,6 C 13,9 C 67 % 1018,4 hPa 0,0 l/m 0 min 0 min 283 W/m 16,7 km/h (3 Bft)
07.05.2015 15:26 15,6 C 13,9 C 67 % 1018,3 hPa 0,0 l/m 0 min 0 min 282 W/m 10,5 km/h (2 Bft)
07.05.2015 15:28 15,6 C 13,9 C 67 % 1018,3 hPa 0,0 l/m 0 min 0 min 283 W/m 20,9 km/h (4 Bft)
07.05.2015 15:30 15,6 C 13,9 C 66 % 1018,3 hPa 0,0 l/m 0 min 0 min 292 W/m 20,9 km/h (4 Bft)
07.05.2015 15:32 15,5 C 13,9 C 66 % 1018,4 hPa 0,0 l/m 0 min 0 min 286 W/m 16,7 km/h (3 Bft)
07.05.2015 15:34 15,5 C 13,9 C 66 % 1018,3 hPa 0,0 l/m 0 min 0 min 295 W/m 16,7 km/h (3 Bft)
07.05.2015 15:36 15,5 C 13,9 C 65 % 1018,3 hPa 0,0 l/m 0 min 0 min 335 W/m 16,7 km/h (3 Bft)
07.05.2015 15:38 15,6 C 13,9 C 65 % 1018,3 hPa 0,0 l/m 2 min 0 min 396 W/m 20,9 km/h (4 Bft)
07.05.2015 15:40 15,6 C 13,9 C 65 % 1018,3 hPa 0,0 l/m 2 min 0 min 542 W/m 16,7 km/h (3 Bft)
07.05.2015 15:42 15,7 C 14,4 C 67 % 1018,2 hPa 0,0 l/m 2 min 0 min 605 W/m 16,7 km/h (3 Bft)
07.05.2015 15:44 15,8 C 14,4 C 67 % 1018,3 hPa 0,0 l/m 2 min 0 min 882 W/m 8,4 km/h (2 Bft)
07.05.2015 15:46 15,9 C 14,4 C 67 % 1018,3 hPa 0,0 l/m 2 min 0 min 490 W/m 16,7 km/h (3 Bft)
07.05.2015 15:48 16,0 C 14,4 C 65 % 1018,4 hPa 0,0 l/m 0 min 0 min 247 W/m 16,7 km/h (3 Bft)
07.05.2015 15:50 16,1 C 13,9 C 65 % 1018,3 hPa 0,0 l/m 0 min 0 min 275 W/m 18,8 km/h (3 Bft)
07.05.2015 15:52 16,1 C 14,4 C 65 % 1018,4 hPa 0,0 l/m 2 min 0 min 349 W/m 14,6 km/h (3 Bft)
07.05.2015 15:54 16,2 C 14,4 C 65 % 1018,4 hPa 0,0 l/m 2 min 0 min 367 W/m 20,9 km/h (4 Bft)
07.05.2015 15:56 16,2 C 14,4 C 65 % 1018,4 hPa 0,0 l/m 2 min 0 min 386 W/m 18,8 km/h (3 Bft)
07.05.2015 15:58 16,3 C 14,4 C 64 % 1018,4 hPa 0,0 l/m 2 min 0 min 371 W/m 18,8 km/h (3 Bft)
07.05.2015 16:00 16,4 C 14,4 C 64 % 1018,3 hPa 0,0 l/m 2 min 0 min 465 W/m 23,0 km/h (4 Bft)
07.05.2015 16:02 16,4 C 14,4 C 63 % 1018,3 hPa 0,0 l/m 2 min 0 min 559 W/m 25,1 km/h (4 Bft)
07.05.2015 16:04 16,5 C 14,4 C 62 % 1018,3 hPa 0,0 l/m 2 min 0 min 532 W/m 23,0 km/h (4 Bft)
07.05.2015 16:06 16,6 C 14,4 C 62 % 1018,3 hPa 0,0 l/m 2 min 0 min 779 W/m 18,8 km/h (3 Bft)
07.05.2015 16:08 16,7 C 14,4 C 63 % 1018,3 hPa 0,0 l/m 2 min 0 min 592 W/m 23,0 km/h (4 Bft)
07.05.2015 16:10 16,7 C 14,4 C 62 % 1018,3 hPa 0,0 l/m 2 min 0 min 383 W/m 23,0 km/h (4 Bft)
07.05.2015 16:12 16,7 C 14,4 C 61 % 1018,3 hPa 0,0 l/m 2 min 0 min 375 W/m 20,9 km/h (4 Bft)
07.05.2015 16:14 16,7 C 14,4 C 61 % 1018,3 hPa 0,0 l/m 2 min 0 min 376 W/m 23,0 km/h (4 Bft)
07.05.2015 16:16 16,7 C 14,4 C 61 % 1018,3 hPa 0,0 l/m 2 min 0 min 341 W/m 16,7 km/h (3 Bft)
07.05.2015 16:18 16,7 C 14,4 C 61 % 1018,2 hPa 0,0 l/m 2 min 0 min 361 W/m 14,6 km/h (3 Bft)
07.05.2015 16:20 16,7 C 14,4 C 62 % 1018,2 hPa 0,0 l/m 2 min 0 min 403 W/m 14,6 km/h (3 Bft)
07.05.2015 16:22 16,7 C 14,4 C 63 % 1018,3 hPa 0,0 l/m 2 min 0 min 379 W/m 20,9 km/h (4 Bft)
07.05.2015 16:24 16,7 C 14,4 C 61 % 1018,3 hPa 0,0 l/m 2 min 0 min 365 W/m 20,9 km/h (4 Bft)
07.05.2015 16:26 16,7 C 14,4 C 61 % 1018,3 hPa 0,0 l/m 2 min 0 min 366 W/m 27,2 km/h (4 Bft)
07.05.2015 16:28 16,8 C 14,4 C 61 % 1018,3 hPa 0,0 l/m 2 min 0 min 350 W/m 20,9 km/h (4 Bft)
07.05.2015 16:30 16,8 C 14,4 C 62 % 1018,2 hPa 0,0 l/m 2 min 0 min 350 W/m 20,9 km/h (4 Bft)
07.05.2015 16:32 16,9 C 14,4 C 62 % 1018,2 hPa 0,0 l/m 2 min 0 min 564 W/m 14,6 km/h (3 Bft)
07.05.2015 16:34 16,9 C 14,4 C 62 % 1018,3 hPa 0,0 l/m 2 min 0 min 687 W/m 16,7 km/h (3 Bft)
07.05.2015 16:36 16,9 C 14,4 C 61 % 1018,3 hPa 0,0 l/m 2 min 0 min 325 W/m 25,1 km/h (4 Bft)
07.05.2015 16:38 16,9 C 13,9 C 60 % 1018,3 hPa 0,0 l/m 0 min 0 min 226 W/m 18,8 km/h (3 Bft)
07.05.2015 16:40 16,9 C 13,9 C 60 % 1018,3 hPa 0,0 l/m 0 min 0 min 253 W/m 20,9 km/h (4 Bft)
07.05.2015 16:42 16,9 C 13,9 C 60 % 1018,2 hPa 0,0 l/m 2 min 0 min 335 W/m 14,6 km/h (3 Bft)
07.05.2015 16:44 16,9 C 13,9 C 61 % 1018,2 hPa 0,0 l/m 2 min 0 min 559 W/m 18,8 km/h (3 Bft)
07.05.2015 16:46 16,9 C 13,9 C 59 % 1018,2 hPa 0,0 l/m 2 min 0 min 451 W/m 27,2 km/h (4 Bft)
07.05.2015 16:48 16,8 C 13,9 C 59 % 1018,2 hPa 0,0 l/m 0 min 0 min 230 W/m 18,8 km/h (3 Bft)
07.05.2015 16:50 16,8 C 13,9 C 60 % 1018,2 hPa 0,0 l/m 0 min 0 min 220 W/m 18,8 km/h (3 Bft)
07.05.2015 16:52 16,8 C 13,9 C 60 % 1018,2 hPa 0,0 l/m 0 min 0 min 220 W/m 23,0 km/h (4 Bft)
07.05.2015 16:54 16,7 C 13,9 C 60 % 1018,2 hPa 0,0 l/m 0 min 0 min 239 W/m 20,9 km/h (4 Bft)
07.05.2015 16:56 16,7 C 13,9 C 60 % 1018,1 hPa 0,0 l/m 0 min 0 min 290 W/m 16,7 km/h (3 Bft)
07.05.2015 16:58 16,7 C 13,9 C 61 % 1018,1 hPa 0,0 l/m 2 min 0 min 326 W/m 18,8 km/h (3 Bft)
07.05.2015 17:00 16,6 C 13,9 C 61 % 1018,1 hPa 0,0 l/m 2 min 0 min 328 W/m 18,8 km/h (3 Bft)
07.05.2015 17:02 16,7 C 13,9 C 62 % 1018,0 hPa 0,0 l/m 2 min 0 min 430 W/m 14,6 km/h (3 Bft)
07.05.2015 17:04 16,6 C 13,9 C 61 % 1018,0 hPa 0,0 l/m 2 min 0 min 367 W/m 20,9 km/h (4 Bft)
07.05.2015 17:06 16,6 C 13,9 C 61 % 1018,0 hPa 0,0 l/m 0 min 0 min 251 W/m 23,0 km/h (4 Bft)
07.05.2015 17:08 16,6 C 13,9 C 61 % 1018,0 hPa 0,0 l/m 0 min 0 min 236 W/m 16,7 km/h (3 Bft)
07.05.2015 17:10 16,6 C 13,9 C 61 % 1018,0 hPa 0,0 l/m 0 min 0 min 232 W/m 20,9 km/h (4 Bft)
07.05.2015 17:12 16,6 C 13,9 C 62 % 1017,9 hPa 0,0 l/m 0 min 0 min 232 W/m 14,6 km/h (3 Bft)
07.05.2015 17:14 16,5 C 13,9 C 61 % 1017,9 hPa 0,0 l/m 0 min 0 min 245 W/m 12,6 km/h (3 Bft)
07.05.2015 17:16 16,5 C 13,9 C 62 % 1017,9 hPa 0,0 l/m 2 min 0 min 292 W/m 10,5 km/h (2 Bft)
07.05.2015 17:18 16,5 C 13,9 C 62 % 1018,0 hPa 0,0 l/m 2 min 0 min 298 W/m 12,6 km/h (3 Bft)
07.05.2015 17:20 16,5 C 13,9 C 62 % 1017,9 hPa 0,0 l/m 2 min 0 min 291 W/m 14,6 km/h (3 Bft)
07.05.2015 17:22 16,5 C 14,4 C 63 % 1018,0 hPa 0,0 l/m 2 min 0 min 280 W/m 12,6 km/h (3 Bft)
07.05.2015 17:24 16,5 C 14,4 C 63 % 1018,0 hPa 0,0 l/m 2 min 0 min 313 W/m 14,6 km/h (3 Bft)
07.05.2015 17:26 16,6 C 14,4 C 62 % 1017,9 hPa 0,0 l/m 2 min 0 min 438 W/m 16,7 km/h (3 Bft)
07.05.2015 17:28 16,6 C 14,4 C 63 % 1018,0 hPa 0,0 l/m 2 min 0 min 649 W/m 20,9 km/h (4 Bft)
07.05.2015 17:30 16,7 C 14,4 C 62 % 1017,8 hPa 0,0 l/m 2 min 0 min 622 W/m 16,7 km/h (3 Bft)
07.05.2015 17:32 16,7 C 13,9 C 61 % 1017,8 hPa 0,0 l/m 2 min 0 min 593 W/m 20,9 km/h (4 Bft)
07.05.2015 17:34 16,8 C 13,9 C 61 % 1017,9 hPa 0,0 l/m 2 min 0 min 556 W/m 18,8 km/h (3 Bft)
07.05.2015 17:36 16,9 C 13,9 C 60 % 1017,9 hPa 0,0 l/m 2 min 0 min 499 W/m 16,7 km/h (3 Bft)
07.05.2015 17:38 16,9 C 13,9 C 60 % 1017,8 hPa 0,0 l/m 2 min 0 min 501 W/m 16,7 km/h (3 Bft)
07.05.2015 17:40 16,9 C 13,9 C 60 % 1017,8 hPa 0,0 l/m 2 min 0 min 504 W/m 18,8 km/h (3 Bft)
07.05.2015 17:42 17,0 C 13,9 C 60 % 1017,8 hPa 0,0 l/m 2 min 0 min 501 W/m 18,8 km/h (3 Bft)
07.05.2015 17:44 17,1 C 13,9 C 61 % 1017,8 hPa 0,0 l/m 2 min 0 min 481 W/m 16,7 km/h (3 Bft)
07.05.2015 17:46 17,1 C 13,9 C 61 % 1017,8 hPa 0,0 l/m 2 min 0 min 475 W/m 16,7 km/h (3 Bft)
07.05.2015 17:48 17,1 C 13,9 C 59 % 1017,9 hPa 0,0 l/m 2 min 0 min 458 W/m 16,7 km/h (3 Bft)
07.05.2015 17:50 17,1 C 13,3 C 60 % 1017,9 hPa 0,0 l/m 2 min 0 min 457 W/m 10,5 km/h (2 Bft)
07.05.2015 17:52 17,1 C 13,3 C 61 % 1017,8 hPa 0,0 l/m 2 min 0 min 451 W/m 20,9 km/h (4 Bft)
07.05.2015 17:54 17,2 C 13,3 C 62 % 1017,8 hPa 0,0 l/m 2 min 0 min 440 W/m 18,8 km/h (3 Bft)
07.05.2015 17:56 17,2 C 13,3 C 62 % 1017,8 hPa 0,0 l/m 2 min 0 min 428 W/m 20,9 km/h (4 Bft)
07.05.2015 17:58 17,2 C 13,3 C 61 % 1017,7 hPa 0,0 l/m 2 min 0 min 416 W/m 14,6 km/h (3 Bft)
07.05.2015 18:00 17,1 C 13,3 C 61 % 1017,7 hPa 0,0 l/m 2 min 0 min 410 W/m 14,6 km/h (3 Bft)
07.05.2015 18:02 17,1 C 13,3 C 61 % 1017,7 hPa 0,0 l/m 2 min 0 min 405 W/m 10,5 km/h (2 Bft)
07.05.2015 18:06 17,0 C 13,3 C 61 % 1017,7 hPa 0,0 l/m 2 min 0 min 398 W/m 18,8 km/h (3 Bft)
07.05.2015 18:08 16,9 C 12,8 C 61 % 1017,7 hPa 0,0 l/m 2 min 0 min 384 W/m 12,6 km/h (3 Bft)
07.05.2015 18:10 16,9 C 12,8 C 61 % 1017,7 hPa 0,0 l/m 2 min 0 min 375 W/m 12,6 km/h (3 Bft)
07.05.2015 18:12 16,8 C 12,8 C 61 % 1017,8 hPa 0,0 l/m 2 min 0 min 376 W/m 10,5 km/h (2 Bft)
07.05.2015 18:14 16,8 C 12,8 C 62 % 1017,9 hPa 0,0 l/m 2 min 0 min 377 W/m 12,6 km/h (3 Bft)
07.05.2015 18:16 16,7 C 12,8 C 62 % 1017,9 hPa 0,0 l/m 2 min 0 min 359 W/m 12,6 km/h (3 Bft)
07.05.2015 18:18 16,7 C 12,8 C 62 % 1017,8 hPa 0,0 l/m 2 min 0 min 347 W/m 8,4 km/h (2 Bft)
07.05.2015 18:20 16,7 C 12,8 C 62 % 1017,7 hPa 0,0 l/m 2 min 0 min 361 W/m 12,6 km/h (3 Bft)
07.05.2015 18:22 16,6 C 12,8 C 60 % 1017,8 hPa 0,0 l/m 2 min 0 min 341 W/m 10,5 km/h (2 Bft)
07.05.2015 18:24 16,6 C 12,8 C 61 % 1017,8 hPa 0,0 l/m 2 min 0 min 326 W/m 12,6 km/h (3 Bft)
07.05.2015 18:26 16,5 C 12,8 C 61 % 1017,9 hPa 0,0 l/m 2 min 0 min 323 W/m 14,6 km/h (3 Bft)
07.05.2015 18:28 16,4 C 12,8 C 61 % 1017,9 hPa 0,0 l/m 2 min 0 min 315 W/m 14,6 km/h (3 Bft)
07.05.2015 18:30 16,4 C 12,8 C 61 % 1017,9 hPa 0,0 l/m 2 min 0 min 311 W/m 16,7 km/h (3 Bft)
07.05.2015 18:32 16,4 C 12,8 C 61 % 1017,9 hPa 0,0 l/m 2 min 0 min 313 W/m 16,7 km/h (3 Bft)
07.05.2015 18:34 16,3 C 12,8 C 61 % 1017,8 hPa 0,0 l/m 2 min 0 min 305 W/m 16,7 km/h (3 Bft)
07.05.2015 18:36 16,3 C 12,8 C 61 % 1017,9 hPa 0,0 l/m 2 min 0 min 304 W/m 16,7 km/h (3 Bft)
07.05.2015 18:38 16,3 C 12,8 C 61 % 1017,8 hPa 0,0 l/m 2 min 0 min 289 W/m 14,6 km/h (3 Bft)
07.05.2015 18:40 16,2 C 12,8 C 61 % 1017,9 hPa 0,0 l/m 2 min 0 min 303 W/m 10,5 km/h (2 Bft)
07.05.2015 18:42 16,2 C 12,8 C 62 % 1017,9 hPa 0,0 l/m 2 min 0 min 266 W/m 12,6 km/h (3 Bft)
07.05.2015 18:44 16,2 C 12,8 C 62 % 1017,9 hPa 0,0 l/m 2 min 0 min 286 W/m 16,7 km/h (3 Bft)
07.05.2015 18:46 16,2 C 12,8 C 62 % 1017,9 hPa 0,0 l/m 2 min 0 min 285 W/m 8,4 km/h (2 Bft)
07.05.2015 18:48 16,2 C 12,8 C 63 % 1017,8 hPa 0,0 l/m 2 min 0 min 256 W/m 14,6 km/h (3 Bft)
07.05.2015 18:50 16,2 C 12,8 C 62 % 1017,8 hPa 0,0 l/m 2 min 0 min 212 W/m 14,6 km/h (3 Bft)
07.05.2015 18:52 16,2 C 12,8 C 62 % 1017,7 hPa 0,0 l/m 2 min 0 min 213 W/m 8,4 km/h (2 Bft)
07.05.2015 18:54 16,2 C 12,8 C 61 % 1017,8 hPa 0,0 l/m 2 min 0 min 205 W/m 10,5 km/h (2 Bft)
07.05.2015 18:56 16,2 C 12,8 C 62 % 1017,7 hPa 0,0 l/m 2 min 0 min 187 W/m 8,4 km/h (2 Bft)
07.05.2015 18:58 16,2 C 12,8 C 62 % 1017,7 hPa 0,0 l/m 2 min 0 min 206 W/m 4,2 km/h (1 Bft)
07.05.2015 19:00 16,2 C 12,8 C 63 % 1017,8 hPa 0,0 l/m 2 min 0 min 195 W/m 4,2 km/h (1 Bft)
07.05.2015 19:02 16,1 C 12,8 C 62 % 1017,8 hPa 0,0 l/m 2 min 0 min 215 W/m 6,3 km/h (2 Bft)
07.05.2015 19:04 16,1 C 12,8 C 63 % 1017,8 hPa 0,0 l/m 2 min 0 min 233 W/m 4,2 km/h (1 Bft)
07.05.2015 19:06 16,1 C 12,8 C 62 % 1017,8 hPa 0,0 l/m 2 min 0 min 239 W/m 10,5 km/h (2 Bft)
07.05.2015 19:08 16,1 C 12,8 C 62 % 1017,8 hPa 0,0 l/m 2 min 0 min 236 W/m 8,4 km/h (2 Bft)
07.05.2015 19:10 16,1 C 12,8 C 62 % 1017,8 hPa 0,0 l/m 2 min 0 min 188 W/m 10,5 km/h (2 Bft)
07.05.2015 19:12 16,1 C 12,8 C 62 % 1017,8 hPa 0,0 l/m 2 min 0 min 162 W/m 10,5 km/h (2 Bft)
07.05.2015 19:14 16,0 C 12,8 C 62 % 1017,8 hPa 0,0 l/m 0 min 0 min 99 W/m 8,4 km/h (2 Bft)
07.05.2015 19:16 16,0 C 12,2 C 62 % 1017,8 hPa 0,0 l/m 0 min 0 min 86 W/m 10,5 km/h (2 Bft)
07.05.2015 19:18 15,9 C 12,2 C 62 % 1017,8 hPa 0,0 l/m 0 min 0 min 81 W/m 6,3 km/h (2 Bft)
07.05.2015 19:20 15,9 C 12,2 C 63 % 1017,8 hPa 0,0 l/m 0 min 0 min 82 W/m 8,4 km/h (2 Bft)
07.05.2015 19:22 15,9 C 12,2 C 63 % 1017,8 hPa 0,0 l/m 0 min 0 min 111 W/m 14,6 km/h (3 Bft)
07.05.2015 19:24 15,9 C 12,2 C 63 % 1017,8 hPa 0,0 l/m 2 min 0 min 134 W/m 8,4 km/h (2 Bft)
07.05.2015 19:26 15,8 C 12,2 C 63 % 1017,7 hPa 0,0 l/m 2 min 0 min 135 W/m 8,4 km/h (2 Bft)
07.05.2015 19:28 15,8 C 12,2 C 63 % 1017,7 hPa 0,0 l/m 0 min 0 min 111 W/m 6,3 km/h (2 Bft)
07.05.2015 19:30 15,8 C 12,2 C 63 % 1017,8 hPa 0,0 l/m 2 min 0 min 120 W/m 4,2 km/h (1 Bft)
07.05.2015 19:32 15,8 C 12,2 C 63 % 1017,8 hPa 0,0 l/m 2 min 0 min 113 W/m 6,3 km/h (2 Bft)
07.05.2015 19:34 15,7 C 12,2 C 64 % 1017,8 hPa 0,0 l/m 0 min 0 min 105 W/m 8,4 km/h (2 Bft)
07.05.2015 19:36 15,7 C 12,2 C 64 % 1017,8 hPa 0,0 l/m 2 min 0 min 106 W/m 10,5 km/h (2 Bft)
07.05.2015 19:38 15,7 C 12,2 C 64 % 1017,8 hPa 0,0 l/m 2 min 0 min 125 W/m 8,4 km/h (2 Bft)
07.05.2015 19:40 15,7 C 12,2 C 64 % 1017,8 hPa 0,0 l/m 2 min 0 min 109 W/m 6,3 km/h (2 Bft)
07.05.2015 19:42 15,7 C 12,2 C 64 % 1017,8 hPa 0,0 l/m 2 min 0 min 105 W/m 8,4 km/h (2 Bft)
07.05.2015 19:44 15,6 C 12,2 C 64 % 1017,8 hPa 0,0 l/m 0 min 0 min 88 W/m 6,3 km/h (2 Bft)
07.05.2015 19:46 15,6 C 12,2 C 64 % 1017,8 hPa 0,0 l/m 0 min 0 min 83 W/m 10,5 km/h (2 Bft)
07.05.2015 19:48 15,6 C 12,2 C 65 % 1017,8 hPa 0,0 l/m 0 min 0 min 85 W/m 6,3 km/h (2 Bft)
07.05.2015 19:50 15,5 C 12,2 C 64 % 1017,8 hPa 0,0 l/m 0 min 0 min 77 W/m 6,3 km/h (2 Bft)
07.05.2015 19:52 15,5 C 12,2 C 64 % 1017,8 hPa 0,0 l/m 0 min 0 min 81 W/m 4,2 km/h (1 Bft)
07.05.2015 19:54 15,4 C 12,2 C 64 % 1017,8 hPa 0,0 l/m 2 min 0 min 90 W/m 4,2 km/h (1 Bft)
07.05.2015 19:56 15,4 C 12,2 C 64 % 1017,8 hPa 0,0 l/m 2 min 0 min 84 W/m 4,2 km/h (1 Bft)
07.05.2015 19:58 15,4 C 12,2 C 64 % 1017,7 hPa 0,0 l/m 0 min 0 min 75 W/m 6,3 km/h (2 Bft)
07.05.2015 20:00 15,4 C 12,2 C 64 % 1017,8 hPa 0,0 l/m 0 min 0 min 70 W/m 6,3 km/h (2 Bft)
07.05.2015 20:02 15,3 C 12,2 C 64 % 1017,8 hPa 0,0 l/m 0 min 0 min 69 W/m 4,2 km/h (1 Bft)
07.05.2015 20:04 15,3 C 12,2 C 64 % 1017,8 hPa 0,0 l/m 2 min 0 min 68 W/m 4,2 km/h (1 Bft)
07.05.2015 20:06 15,3 C 12,2 C 64 % 1017,8 hPa 0,0 l/m 2 min 0 min 67 W/m 2,1 km/h (1 Bft)
07.05.2015 20:08 15,2 C 12,2 C 65 % 1017,8 hPa 0,0 l/m 0 min 0 min 60 W/m 4,2 km/h (1 Bft)
07.05.2015 20:10 15,3 C 11,7 C 65 % 1017,8 hPa 0,0 l/m 0 min 0 min 54 W/m 4,2 km/h (1 Bft)
07.05.2015 20:12 15,2 C 11,7 C 65 % 1017,9 hPa 0,0 l/m 0 min 0 min 50 W/m 4,2 km/h (1 Bft)
07.05.2015 20:14 15,2 C 11,7 C 65 % 1017,9 hPa 0,0 l/m 0 min 0 min 47 W/m 4,2 km/h (1 Bft)
07.05.2015 20:16 15,2 C 11,7 C 65 % 1017,9 hPa 0,0 l/m 0 min 0 min 46 W/m 0,0 km/h (0 Bft)
07.05.2015 20:18 15,2 C 11,7 C 65 % 1017,9 hPa 0,0 l/m 0 min 0 min 45 W/m 2,1 km/h (1 Bft)
07.05.2015 20:20 15,1 C 11,7 C 65 % 1017,9 hPa 0,0 l/m 0 min 0 min 44 W/m 2,1 km/h (1 Bft)
07.05.2015 20:22 15,1 C 11,7 C 65 % 1017,9 hPa 0,0 l/m 0 min 0 min 42 W/m 2,1 km/h (1 Bft)
07.05.2015 20:24 15,1 C 11,7 C 66 % 1017,9 hPa 0,0 l/m 0 min 0 min 38 W/m 2,1 km/h (1 Bft)
07.05.2015 20:26 15,1 C 11,7 C 66 % 1017,9 hPa 0,0 l/m 0 min 0 min 36 W/m 2,1 km/h (1 Bft)
07.05.2015 20:28 15,0 C 11,7 C 66 % 1018,0 hPa 0,0 l/m 0 min 0 min 32 W/m 2,1 km/h (1 Bft)
07.05.2015 20:30 15,0 C 11,7 C 67 % 1017,9 hPa 0,0 l/m 0 min 0 min 30 W/m 2,1 km/h (1 Bft)
07.05.2015 20:32 14,9 C 11,1 C 67 % 1017,9 hPa 0,0 l/m 0 min 0 min 28 W/m 2,1 km/h (1 Bft)
07.05.2015 20:34 14,9 C 11,1 C 67 % 1017,9 hPa 0,0 l/m 0 min 0 min 27 W/m 0,0 km/h (0 Bft)
07.05.2015 20:36 14,9 C 11,1 C 67 % 1017,9 hPa 0,0 l/m 0 min 0 min 27 W/m 0,0 km/h (0 Bft)
07.05.2015 20:38 14,8 C 11,1 C 67 % 1017,8 hPa 0,0 l/m 2 min 0 min 28 W/m 0,0 km/h (0 Bft)
07.05.2015 20:40 14,8 C 11,1 C 68 % 1017,9 hPa 0,0 l/m 2 min 0 min 26 W/m 2,1 km/h (1 Bft)
07.05.2015 20:42 14,7 C 11,1 C 68 % 1017,9 hPa 0,0 l/m 2 min 0 min 24 W/m 2,1 km/h (1 Bft)
07.05.2015 20:44 14,7 C 11,1 C 68 % 1017,9 hPa 0,0 l/m 2 min 0 min 21 W/m 4,2 km/h (1 Bft)
07.05.2015 20:46 14,6 C 11,1 C 69 % 1017,8 hPa 0,0 l/m 0 min 0 min 18 W/m 4,2 km/h (1 Bft)
07.05.2015 20:48 14,6 C 11,1 C 69 % 1017,8 hPa 0,0 l/m 0 min 0 min 16 W/m 2,1 km/h (1 Bft)
07.05.2015 20:50 14,4 C 11,1 C 69 % 1017,9 hPa 0,0 l/m 0 min 0 min 14 W/m 2,1 km/h (1 Bft)
07.05.2015 20:52 14,4 C 10,6 C 69 % 1017,9 hPa 0,0 l/m 0 min 0 min 12 W/m 0,0 km/h (0 Bft)
07.05.2015 20:54 14,3 C 10,6 C 69 % 1017,9 hPa 0,0 l/m 0 min 0 min 11 W/m 0,0 km/h (0 Bft)
07.05.2015 20:56 14,2 C 10,6 C 69 % 1017,9 hPa 0,0 l/m 0 min 0 min 9 W/m 0,0 km/h (0 Bft)
07.05.2015 20:58 14,2 C 10,6 C 70 % 1017,9 hPa 0,0 l/m 0 min 0 min 7 W/m 0,0 km/h (0 Bft)
07.05.2015 21:00 14,2 C 10,6 C 70 % 1017,9 hPa 0,0 l/m 0 min 0 min 7 W/m 2,1 km/h (1 Bft)
07.05.2015 21:02 14,2 C 10,6 C 70 % 1017,9 hPa 0,0 l/m 0 min 0 min 6 W/m 2,1 km/h (1 Bft)
07.05.2015 21:04 14,1 C 10,6 C 70 % 1017,9 hPa 0,0 l/m 0 min 0 min 5 W/m 2,1 km/h (1 Bft)
07.05.2015 21:06 13,9 C 10,6 C 71 % 1017,9 hPa 0,0 l/m 0 min 0 min 5 W/m 2,1 km/h (1 Bft)
07.05.2015 21:08 13,9 C 10,6 C 71 % 1017,9 hPa 0,0 l/m 0 min 0 min 4 W/m 2,1 km/h (1 Bft)
07.05.2015 21:10 13,8 C 10,6 C 71 % 1017,9 hPa 0,0 l/m 0 min 0 min 0 W/m 2,1 km/h (1 Bft)
07.05.2015 21:12 13,7 C 10,6 C 71 % 1017,9 hPa 0,0 l/m 0 min 0 min 0 W/m 4,2 km/h (1 Bft)
07.05.2015 21:14 13,7 C 10,0 C 71 % 1017,9 hPa 0,0 l/m 0 min 0 min 0 W/m 2,1 km/h (1 Bft)
07.05.2015 21:16 13,6 C 10,0 C 72 % 1017,9 hPa 0,0 l/m 0 min 0 min 0 W/m 2,1 km/h (1 Bft)
07.05.2015 21:18 13,5 C 10,0 C 72 % 1017,9 hPa 0,0 l/m 0 min 0 min 0 W/m 2,1 km/h (1 Bft)
07.05.2015 21:20 13,4 C 10,0 C 72 % 1017,9 hPa 0,0 l/m 0 min 0 min 0 W/m 2,1 km/h (1 Bft)
07.05.2015 21:22 13,3 C 10,0 C 73 % 1017,9 hPa 0,0 l/m 0 min 0 min 0 W/m 2,1 km/h (1 Bft)
07.05.2015 21:24 13,3 C 10,0 C 73 % 1018,0 hPa 0,0 l/m 0 min 0 min 0 W/m 4,2 km/h (1 Bft)
07.05.2015 21:26 13,2 C 10,0 C 73 % 1017,9 hPa 0,0 l/m 0 min 0 min 0 W/m 2,1 km/h (1 Bft)
07.05.2015 21:28 13,2 C 10,0 C 73 % 1017,9 hPa 0,0 l/m 0 min 0 min 0 W/m 2,1 km/h (1 Bft)
07.05.2015 21:30 13,1 C 10,0 C 74 % 1017,9 hPa 0,0 l/m 0 min 0 min 0 W/m 0,0 km/h (0 Bft)
07.05.2015 21:32 13,0 C 10,0 C 74 % 1017,9 hPa 0,0 l/m 0 min 0 min 0 W/m 0,0 km/h (0 Bft)
07.05.2015 21:34 12,9 C 10,0 C 74 % 1017,9 hPa 0,0 l/m 0 min 0 min 0 W/m 0,0 km/h (0 Bft)
07.05.2015 21:36 12,8 C 10,0 C 74 % 1017,9 hPa 0,0 l/m 0 min 0 min 0 W/m 0,0 km/h (0 Bft)
07.05.2015 21:38 12,8 C 10,0 C 74 % 1018,0 hPa 0,0 l/m 0 min 0 min 0 W/m 0,0 km/h (0 Bft)
07.05.2015 21:40 12,7 C 10,0 C 75 % 1018,0 hPa 0,0 l/m 0 min 0 min 0 W/m 0,0 km/h (0 Bft)
07.05.2015 21:42 12,6 C 10,0 C 75 % 1018,0 hPa 0,0 l/m 0 min 0 min 0 W/m 0,0 km/h (0 Bft)
07.05.2015 21:44 12,6 C 10,0 C 76 % 1018,0 hPa 0,0 l/m 0 min 0 min 0 W/m 0,0 km/h (0 Bft)
07.05.2015 21:46 12,4 C 10,0 C 76 % 1018,0 hPa 0,0 l/m 0 min 0 min 0 W/m 0,0 km/h (0 Bft)
07.05.2015 21:48 12,4 C 10,0 C 76 % 1018,0 hPa 0,0 l/m 0 min 0 min 0 W/m 0,0 km/h (0 Bft)
07.05.2015 21:50 12,3 C 9,4 C 76 % 1018,0 hPa 0,0 l/m 0 min 0 min 0 W/m 0,0 km/h (0 Bft)
07.05.2015 21:52 12,3 C 9,4 C 77 % 1018,1 hPa 0,0 l/m 0 min 0 min 0 W/m 0,0 km/h (0 Bft)
07.05.2015 21:54 12,2 C 9,4 C 77 % 1018,1 hPa 0,0 l/m 0 min 0 min 0 W/m 2,1 km/h (1 Bft)
07.05.2015 21:56 12,1 C 9,4 C 77 % 1018,1 hPa 0,0 l/m 0 min 0 min 0 W/m 4,2 km/h (1 Bft)
07.05.2015 21:58 12,1 C 9,4 C 77 % 1018,1 hPa 0,0 l/m 0 min 0 min 0 W/m 4,2 km/h (1 Bft)
07.05.2015 22:00 12,0 C 9,4 C 78 % 1018,2 hPa 0,0 l/m 0 min 0 min 0 W/m 2,1 km/h (1 Bft)
07.05.2015 22:02 11,9 C 9,4 C 78 % 1018,1 hPa 0,0 l/m 0 min 0 min 0 W/m 4,2 km/h (1 Bft)
07.05.2015 22:04 11,9 C 9,4 C 78 % 1018,2 hPa 0,0 l/m 0 min 0 min 0 W/m 4,2 km/h (1 Bft)
07.05.2015 22:06 11,8 C 9,4 C 78 % 1018,1 hPa 0,0 l/m 0 min 0 min 0 W/m 4,2 km/h (1 Bft)
07.05.2015 22:08 11,8 C 9,4 C 79 % 1018,2 hPa 0,0 l/m 0 min 0 min 0 W/m 2,1 km/h (1 Bft)
07.05.2015 22:10 11,7 C 9,4 C 79 % 1018,1 hPa 0,0 l/m 0 min 0 min 0 W/m 0,0 km/h (0 Bft)
07.05.2015 22:12 11,7 C 9,4 C 79 % 1018,2 hPa 0,0 l/m 0 min 0 min 0 W/m 0,0 km/h (0 Bft)
07.05.2015 22:14 11,6 C 9,4 C 79 % 1018,2 hPa 0,0 l/m 0 min 0 min 0 W/m 2,1 km/h (1 Bft)
07.05.2015 22:16 11,6 C 9,4 C 79 % 1018,2 hPa 0,0 l/m 0 min 0 min 0 W/m 2,1 km/h (1 Bft)
07.05.2015 22:18 11,5 C 9,4 C 80 % 1018,2 hPa 0,0 l/m 0 min 0 min 0 W/m 2,1 km/h (1 Bft)
07.05.2015 22:20 11,4 C 9,4 C 80 % 1018,2 hPa 0,0 l/m 0 min 0 min 0 W/m 2,1 km/h (1 Bft)
07.05.2015 22:22 11,4 C 9,4 C 80 % 1018,2 hPa 0,0 l/m 0 min 0 min 0 W/m 2,1 km/h (1 Bft)
07.05.2015 22:24 11,3 C 9,4 C 80 % 1018,1 hPa 0,0 l/m 0 min 0 min 0 W/m 2,1 km/h (1 Bft)
07.05.2015 22:26 11,3 C 9,4 C 80 % 1018,1 hPa 0,0 l/m 0 min 0 min 0 W/m 4,2 km/h (1 Bft)
07.05.2015 22:28 11,3 C 9,4 C 81 % 1018,2 hPa 0,0 l/m 0 min 0 min 0 W/m 2,1 km/h (1 Bft)
07.05.2015 22:30 11,2 C 9,4 C 81 % 1018,1 hPa 0,0 l/m 0 min 0 min 0 W/m 2,1 km/h (1 Bft)
07.05.2015 22:32 11,2 C 9,4 C 81 % 1018,1 hPa 0,0 l/m 0 min 0 min 0 W/m 2,1 km/h (1 Bft)
07.05.2015 22:34 11,2 C 9,4 C 81 % 1018,1 hPa 0,0 l/m 0 min 0 min 0 W/m 0,0 km/h (0 Bft)
07.05.2015 22:36 11,1 C 9,4 C 81 % 1018,1 hPa 0,0 l/m 0 min 0 min 0 W/m 0,0 km/h (0 Bft)
07.05.2015 22:38 11,1 C 9,4 C 81 % 1018,2 hPa 0,0 l/m 0 min 0 min 0 W/m 2,1 km/h (1 Bft)
07.05.2015 22:40 11,0 C 9,4 C 81 % 1018,1 hPa 0,0 l/m 0 min 0 min 0 W/m 2,1 km/h (1 Bft)
07.05.2015 22:42 11,0 C 9,4 C 81 % 1018,1 hPa 0,0 l/m 0 min 0 min 0 W/m 2,1 km/h (1 Bft)
07.05.2015 22:44 10,9 C 9,4 C 82 % 1018,1 hPa 0,0 l/m 0 min 0 min 0 W/m 0,0 km/h (0 Bft)
07.05.2015 22:46 10,9 C 9,4 C 82 % 1018,1 hPa 0,0 l/m 0 min 0 min 0 W/m 2,1 km/h (1 Bft)
07.05.2015 22:48 10,9 C 9,4 C 82 % 1018,1 hPa 0,0 l/m 0 min 0 min 0 W/m 2,1 km/h (1 Bft)
07.05.2015 22:50 10,8 C 9,4 C 82 % 1018,0 hPa 0,0 l/m 0 min 0 min 0 W/m 2,1 km/h (1 Bft)
07.05.2015 22:52 10,8 C 9,4 C 82 % 1018,1 hPa 0,0 l/m 0 min 0 min 0 W/m 2,1 km/h (1 Bft)
07.05.2015 22:54 10,8 C 9,4 C 82 % 1018,0 hPa 0,0 l/m 0 min 0 min 0 W/m 2,1 km/h (1 Bft)
07.05.2015 22:56 10,7 C 9,4 C 82 % 1018,2 hPa 0,0 l/m 0 min 0 min 0 W/m 2,1 km/h (1 Bft)
07.05.2015 22:58 10,7 C 9,4 C 82 % 1018,1 hPa 0,0 l/m 0 min 0 min 0 W/m 0,0 km/h (0 Bft)
07.05.2015 23:00 10,7 C 9,4 C 82 % 1018,1 hPa 0,0 l/m 0 min 0 min 0 W/m 0,0 km/h (0 Bft)
07.05.2015 23:02 10,7 C 9,4 C 82 % 1018,1 hPa 0,0 l/m 0 min 0 min 0 W/m 0,0 km/h (0 Bft)
07.05.2015 23:04 10,6 C 9,4 C 82 % 1018,1 hPa 0,0 l/m 0 min 0 min 0 W/m 2,1 km/h (1 Bft)
07.05.2015 23:06 10,6 C 9,4 C 83 % 1018,1 hPa 0,0 l/m 0 min 0 min 0 W/m 2,1 km/h (1 Bft)
07.05.2015 23:08 10,6 C 9,4 C 83 % 1018,1 hPa 0,0 l/m 0 min 0 min 0 W/m 2,1 km/h (1 Bft)
07.05.2015 23:10 10,5 C 9,4 C 83 % 1018,2 hPa 0,0 l/m 0 min 0 min 0 W/m 2,1 km/h (1 Bft)
07.05.2015 23:12 10,5 C 9,4 C 83 % 1018,2 hPa 0,0 l/m 0 min 0 min 0 W/m 2,1 km/h (1 Bft)
07.05.2015 23:14 10,5 C 9,4 C 83 % 1018,1 hPa 0,0 l/m 0 min 0 min 0 W/m 0,0 km/h (0 Bft)
07.05.2015 23:16 10,4 C 9,4 C 83 % 1018,1 hPa 0,0 l/m 0 min 0 min 0 W/m 2,1 km/h (1 Bft)
07.05.2015 23:18 10,4 C 9,4 C 83 % 1018,1 hPa 0,0 l/m 0 min 0 min 0 W/m 2,1 km/h (1 Bft)
07.05.2015 23:20 10,4 C 9,4 C 83 % 1018,1 hPa 0,0 l/m 0 min 0 min 0 W/m 2,1 km/h (1 Bft)
07.05.2015 23:22 10,4 C 9,4 C 83 % 1018,1 hPa 0,0 l/m 0 min 0 min 0 W/m 2,1 km/h (1 Bft)
07.05.2015 23:24 10,4 C 9,4 C 84 % 1018,1 hPa 0,0 l/m 0 min 0 min 0 W/m 0,0 km/h (0 Bft)
07.05.2015 23:26 10,3 C 9,4 C 84 % 1018,2 hPa 0,0 l/m 0 min 0 min 0 W/m 2,1 km/h (1 Bft)
07.05.2015 23:28 10,3 C 9,4 C 84 % 1018,2 hPa 0,0 l/m 0 min 0 min 0 W/m 0,0 km/h (0 Bft)
07.05.2015 23:30 10,3 C 9,4 C 84 % 1018,2 hPa 0,0 l/m 0 min 0 min 0 W/m 2,1 km/h (1 Bft)
07.05.2015 23:32 10,3 C 9,4 C 84 % 1018,1 hPa 0,0 l/m 0 min 0 min 0 W/m 2,1 km/h (1 Bft)
07.05.2015 23:34 10,3 C 9,4 C 84 % 1018,1 hPa 0,0 l/m 0 min 0 min 0 W/m 2,1 km/h (1 Bft)
07.05.2015 23:36 10,3 C 9,4 C 84 % 1018,2 hPa 0,0 l/m 0 min 0 min 0 W/m 2,1 km/h (1 Bft)
07.05.2015 23:38 10,2 C 9,4 C 84 % 1018,2 hPa 0,0 l/m 0 min 0 min 0 W/m 0,0 km/h (0 Bft)
07.05.2015 23:40 10,2 C 9,4 C 84 % 1018,1 hPa 0,0 l/m 0 min 0 min 0 W/m 2,1 km/h (1 Bft)
07.05.2015 23:42 10,2 C 9,4 C 85 % 1018,2 hPa 0,0 l/m 0 min 0 min 0 W/m 2,1 km/h (1 Bft)
07.05.2015 23:44 10,2 C 8,9 C 85 % 1018,2 hPa 0,0 l/m 0 min 0 min 0 W/m 2,1 km/h (1 Bft)
07.05.2015 23:46 10,2 C 8,9 C 85 % 1018,2 hPa 0,0 l/m 0 min 0 min 0 W/m 2,1 km/h (1 Bft)
07.05.2015 23:48 10,1 C 8,9 C 85 % 1018,2 hPa 0,0 l/m 0 min 0 min 0 W/m 2,1 km/h (1 Bft)
07.05.2015 23:50 10,1 C 8,9 C 85 % 1018,2 hPa 0,0 l/m 0 min 0 min 0 W/m 0,0 km/h (0 Bft)
07.05.2015 23:52 10,1 C 8,9 C 85 % 1018,2 hPa 0,0 l/m 0 min 0 min 0 W/m 0,0 km/h (0 Bft)
07.05.2015 23:54 10,1 C 8,9 C 85 % 1018,1 hPa 0,0 l/m 0 min 0 min 0 W/m 2,1 km/h (1 Bft)
07.05.2015 23:56 10,1 C 8,9 C 85 % 1018,1 hPa 0,0 l/m 0 min 0 min 0 W/m 2,1 km/h (1 Bft)
07.05.2015 23:58 10,0 C 8,9 C 85 % 1018,1 hPa 0,0 l/m 0 min 0 min 0 W/m 0,0 km/h (0 Bft)
_ Min-Zeit 06:30 04:34 16:46 00:02 - - - - 20:16
Minimum _ 9,1 C 7,8 C 59 % 1013,3 hPa - - - - 0,0 km/h (0 Bft)
_ Max-Zeit 17:54 13:22 06:54 14:24 00:00 08:20 14:22 13:52 10:24
Maximum _ 17,2 C 14,4 C 86 % 1018,4 hPa 0,0 l/m 2 min 2 min 1038 W/m 41,8 km/h
W-SW (6 Bft)
Durchschnitt _ 12,6 C 10,7 C 75 % 1016,7 hPa #0,0 l/m #6:22 h #4 min. 259 W/m 17,7 km/h (3 Bft)
© 2015 W. Hausmann